GFSGBSN_sfc_thetae_000.txt.gz
Theta_e
325 324 322 322 321 322 322 323 323 322 322 322 321 321 321 320 321 321 321 320 321 320 320 320 320 320 308 294 298 311 329 329 312 307 303 300 298 296 293 294 294 293 295 298 298 296 297
326 325 325 325 323 323 323 323 324 324 323 323 322 321 321 321 321 321 321 321 321 320 320 320 320 319 299 291 302 315 316 311 307 303 300 300 298 299 295 294 294 293 294 295 295 296 296
327 326 326 326 325 325 324 324 324 324 324 323 322 322 321 321 321 321 321 321 321 320 320 320 319 315 299 297 304 310 310 306 305 303 299 299 299 297 294 292 294 294 292 292 292 293 293
327 327 327 326 326 325 324 324 324 324 323 322 322 321 320 320 320 320 320 321 321 320 320 320 319 307 292 302 304 304 303 300 301 300 299 299 299 297 294 294 292 288 288 285 289 291 292
328 327 327 326 326 325 324 324 324 323 323 321 321 320 320 320 320 319 320 320 319 319 318 318 307 296 292 307 301 302 302 299 299 299 299 303 298 294 292 288 286 284 282 283 287 292 291
327 327 327 326 326 326 325 324 324 323 322 321 320 319 319 319 319 319 320 318 317 315 316 316 308 293 296 295 301 301 300 301 298 297 296 295 292 289 287 286 281 282 281 283 283 289 287
327 327 327 327 326 326 325 324 324 323 322 321 320 320 320 320 320 320 310 303 296 293 300 296 296 293 294 300 302 299 301 300 297 293 290 290 287 286 289 288 288 283 283 283 286 290 286
327 327 327 327 327 326 325 325 325 325 324 322 321 320 320 320 319 316 303 299 296 298 291 297 297 298 298 300 295 298 300 296 293 290 289 287 285 291 290 288 287 285 285 286 289 291 286
327 326 326 326 326 326 325 324 324 325 324 322 320 320 319 319 317 307 299 298 303 301 290 293 295 294 295 298 294 295 298 294 291 288 288 288 290 292 289 286 286 284 283 286 285 286 286
326 326 326 325 325 324 323 323 322 322 321 321 321 320 319 318 310 303 300 302 304 299 287 290 290 293 296 295 289 294 295 293 289 289 287 287 290 290 286 286 287 285 288 288 286 282 280
322 321 320 320 320 319 319 319 319 319 319 319 319 320 319 316 307 304 303 304 301 293 282 293 290 297 295 291 289 290 293 292 288 288 287 286 285 285 285 288 288 287 288 286 283 281 280
319 318 318 317 316 316 316 315 315 315 315 315 317 318 317 312 308 307 305 303 296 288 284 290 289 289 289 290 289 290 290 291 289 286 286 287 287 288 289 288 289 287 285 283 281 281 276
317 316 315 314 313 313 312 312 311 311 311 312 313 315 315 313 309 307 305 304 294 287 294 289 286 288 286 286 288 287 287 286 286 283 282 284 285 286 288 285 285 285 282 276 274 273 276
314 313 312 311 311 310 309 309 309 308 308 309 310 313 314 314 311 308 308 300 287 291 291 292 291 289 289 289 290 287 284 284 286 284 281 282 285 285 287 287 285 283 284 278 274 272 280
311 310 309 308 307 306 306 306 306 306 306 307 309 313 313 314 309 311 304 291 290 290 294 293 294 289 288 288 290 285 283 284 288 287 287 281 282 285 286 286 287 282 281 286 281 283 277
307 306 305 305 304 303 303 303 304 305 305 305 300 307 309 313 310 308 298 292 292 297 297 296 291 294 287 287 287 286 286 286 287 288 289 288 283 287 285 285 286 285 286 280 279 275 274
305 304 303 303 302 301 301 301 301 301 302 304 300 299 304 310 311 301 291 292 297 300 300 296 294 294 293 291 291 291 292 292 289 288 288 288 287 285 285 283 285 284 282 282 282 282 278
302 301 300 300 299 299 299 299 300 300 302 303 300 291 307 311 296 297 293 295 298 297 299 297 297 296 293 293 291 291 290 293 294 293 288 289 290 285 286 288 288 286 287 286 281 280 281
301 301 300 299 299 299 299 298 299 300 301 296 294 293 307 307 289 291 295 294 297 296 296 296 294 296 296 293 289 292 292 295 296 294 292 293 287 281 282 284 286 285 288 288 288 285 281
300 300 300 300 300 299 299 300 298 298 300 294 292 284 294 299 296 293 290 290 291 296 296 297 295 296 293 291 293 290 290 292 291 292 295 294 287 285 280 282 286 285 287 288 287 282 282
301 300 299 300 301 299 299 298 299 299 300 291 286 284 288 282 287 290 291 289 287 287 292 294 292 291 290 287 288 288 290 290 289 291 289 290 284 286 286 288 286 284 283 283 281 283 280
300 300 300 300 301 299 300 299 298 299 299 287 282 283 285 283 285 285 286 285 286 287 288 287 287 288 289 286 287 285 286 284 284 286 286 288 280 281 277 281 280 279 281 281 282 281 282
300 301 301 300 302 300 300 299 300 300 296 284 285 286 287 282 281 279 279 282 283 284 285 285 283 285 284 285 286 285 285 284 284 282 281 282 280 277 273 278 277 272 277 279 280 282 278
302 300 300 300 300 301 300 299 300 299 298 288 286 284 282 275 279 279 281 280 280 280 279 281 283 282 284 286 286 284 283 282 282 282 283 279 277 274 273 270 266 275 278 279 277 276 277
301 302 302 302 302 301 300 299 299 300 300 292 288 285 279 272 280 279 280 280 279 278 279 279 281 284 285 280 275 266 266 269 276 278 279 281 278 268 267 262 271 275 275 274 274 274 276
301 300 300 300 301 301 301 301 300 299 299 291 291 290 286 277 276 281 278 279 273 271 273 278 280 279 281 276 266 258 260 264 264 270 277 277 279 275 265 264 258 272 276 278 277 267 272
300 301 301 300 300 300 300 301 301 301 300 292 288 291 288 281 281 281 277 277 279 276 269 269 272 274 278 271 256 258 260 272 263 262 264 259 258 264 261 259 263 271 274 276 262 265 270
300 300 300 299 300 299 298 299 300 300 300 297 292 292 289 284 283 282 283 279 278 275 269 270 271 270 270 262 259 269 262 270 267 270 269 267 260 256 254 254 257 275 273 268 271 274 274
300 300 299 300 299 299 299 299 299 300 299 299 291 293 293 286 283 284 286 287 285 282 277 271 274 266 274 268 264 264 260 261 263 259 272 264 269 262 265 264 275 277 275 279 277 274 276

GFSGBSN_sfc_thetae_003.txt.gz
Theta_e
325 324 322 321 321 322 323 323 323 324 323 323 322 322 322 322 322 323 322 322 322 322 321 321 321 320 309 293 297 314 331 331 310 307 304 301 299 298 295 295 296 295 296 298 298 297 298
325 325 325 324 323 323 323 324 324 324 324 324 323 322 322 322 322 323 322 322 322 322 321 321 321 319 297 291 302 319 318 310 307 304 302 301 300 300 296 295 296 295 296 295 295 296 296
326 326 326 325 325 324 324 324 324 325 324 324 323 322 322 322 322 322 322 322 322 321 321 321 320 314 297 296 305 312 311 306 306 303 300 300 300 299 297 293 296 294 292 292 292 293 294
327 327 327 326 325 324 324 324 324 324 324 323 322 321 321 321 321 321 322 322 321 320 320 320 319 306 291 302 305 306 302 300 302 301 300 299 300 298 296 296 293 289 289 286 291 292 292
327 327 326 326 326 325 324 324 324 324 323 322 321 320 320 320 320 320 321 321 318 318 317 318 304 294 292 308 300 301 301 299 299 299 300 301 299 294 293 289 286 286 283 284 287 292 291
327 327 326 326 326 326 325 325 324 324 323 321 320 320 320 320 320 320 320 316 317 315 315 315 307 292 296 295 301 301 300 300 298 298 297 296 292 290 287 286 282 283 282 283 284 290 288
327 327 326 326 326 326 326 325 325 325 323 322 321 321 321 320 320 320 309 301 297 294 298 295 295 293 293 299 302 299 301 299 297 294 290 291 287 286 289 288 287 285 283 282 285 289 287
326 326 326 326 326 326 326 325 325 326 326 324 322 321 321 320 320 316 302 298 296 297 290 297 297 298 298 299 295 297 300 296 294 290 289 287 286 291 290 288 287 286 284 285 287 290 286
326 326 326 326 326 326 325 325 325 325 324 323 321 321 321 320 318 307 299 298 304 301 289 294 295 294 295 298 294 294 298 294 291 288 287 287 289 291 289 286 286 284 284 286 285 286 286
326 326 325 325 325 324 322 321 321 320 319 320 321 321 320 320 311 303 301 303 303 298 288 292 291 292 295 294 289 294 295 293 290 289 287 287 290 289 286 287 287 284 288 287 285 283 280
325 323 321 321 319 319 318 317 317 316 316 316 318 319 320 318 309 305 303 303 302 293 285 293 289 297 295 290 289 291 293 292 287 288 287 287 287 285 285 288 288 286 287 285 284 282 281
321 320 319 318 316 315 314 314 313 312 312 313 313 316 316 313 310 307 304 303 296 292 285 292 289 288 288 289 289 290 291 291 289 287 286 287 288 288 288 287 288 287 285 283 282 282 277
318 317 316 315 313 312 311 311 310 309 309 309 309 311 316 315 310 306 305 306 293 287 295 291 286 287 285 284 287 287 287 286 285 283 283 284 285 286 287 285 285 286 283 277 275 274 276
315 314 312 311 310 309 308 308 307 307 307 307 307 310 315 314 310 306 308 300 287 291 292 293 292 290 289 289 288 287 285 284 286 284 281 283 285 286 287 288 285 283 284 280 274 275 280
312 311 309 308 307 306 306 305 305 305 305 305 307 309 311 314 309 311 304 290 288 290 294 293 294 288 286 288 290 286 284 284 287 287 287 282 281 284 285 286 288 282 281 286 281 280 279
309 307 307 305 304 303 302 302 302 302 302 303 299 303 306 313 310 308 298 292 292 295 297 296 289 293 286 289 290 288 288 288 287 289 292 288 284 286 286 286 285 285 286 280 279 273 274
307 305 304 303 302 301 301 301 300 301 302 303 299 296 303 311 311 301 289 291 295 300 300 296 294 293 293 292 291 289 292 292 291 288 289 287 286 285 286 283 283 282 281 282 282 281 277
305 303 302 301 301 300 299 300 300 301 302 302 297 288 307 311 297 297 292 294 297 296 298 297 297 295 292 292 291 290 289 292 294 290 287 289 288 281 284 289 287 286 286 287 281 280 280
302 302 301 299 300 299 299 299 299 300 300 294 292 292 306 307 288 291 293 294 297 294 295 296 294 295 294 291 288 291 292 294 295 294 291 292 285 279 280 284 286 285 286 287 287 285 281
301 301 301 300 300 299 299 298 299 299 300 293 288 283 292 299 295 292 289 289 289 294 294 296 294 294 291 289 292 289 290 293 291 292 294 294 287 285 279 280 284 283 284 286 285 281 281
301 300 300 299 300 300 299 298 297 300 299 290 284 282 288 284 285 287 289 288 285 285 291 291 289 290 288 286 286 286 289 289 290 291 288 289 283 285 285 286 284 282 281 280 278 280 277
300 300 301 300 300 301 299 299 298 301 297 285 281 280 283 284 285 283 287 284 285 286 287 286 285 286 286 284 286 284 287 286 286 284 283 286 281 279 274 280 280 278 279 280 279 279 280
300 301 300 300 301 302 300 300 300 301 295 283 283 285 284 280 280 279 278 282 281 283 284 281 281 282 281 282 284 284 285 284 284 282 282 282 280 276 274 277 276 272 275 278 278 280 278
301 301 300 300 300 301 301 300 299 300 296 288 285 283 277 273 279 279 281 281 280 280 279 281 282 281 283 285 285 283 282 282 282 282 283 280 277 277 273 268 266 275 276 279 277 275 274
302 302 303 302 301 301 301 301 300 300 299 289 288 283 276 270 279 279 279 279 279 278 278 279 280 282 283 279 276 264 265 268 274 278 279 281 277 267 267 264 271 274 275 274 274 272 275
301 301 301 302 302 302 302 301 302 300 300 294 292 291 284 273 273 280 278 278 272 271 272 277 279 278 280 276 265 258 260 264 264 269 275 277 278 274 260 261 256 270 276 278 275 265 272
301 301 301 302 302 301 301 301 301 301 301 292 292 292 288 280 280 280 276 277 279 275 269 269 271 273 278 270 254 257 259 270 262 261 262 259 261 270 269 268 265 270 273 276 262 265 271
301 301 300 301 301 301 301 301 301 301 301 297 292 291 289 283 282 282 283 278 278 275 269 270 271 270 269 262 259 268 261 269 266 269 268 267 259 254 253 256 260 273 273 268 271 275 274
300 300 300 301 301 301 300 300 300 300 301 300 291 293 294 286 281 284 286 287 284 281 277 269 273 266 274 267 263 265 260 263 264 260 271 265 269 263 265 264 274 276 275 278 279 276 277

GFSGBSN_sfc_thetae_006.txt.gz
Theta_e
325 323 322 322 322 322 323 323 323 323 324 323 323 323 323 323 323 323 323 323 323 323 322 322 321 321 314 303 305 321 330 332 316 313 311 309 307 306 302 304 303 302 304 305 306 304 304
324 325 325 324 323 322 323 324 324 324 324 324 323 322 322 322 323 323 323 323 323 323 322 322 321 320 307 297 310 327 327 315 314 312 310 309 307 308 304 302 302 303 302 303 303 303 303
326 325 326 325 323 323 323 324 324 325 324 324 323 322 322 322 322 322 322 323 322 321 321 321 321 316 303 303 312 322 316 313 312 311 308 308 308 306 305 301 302 301 298 301 301 301 300
327 327 326 326 325 324 324 324 324 324 324 323 322 321 321 321 321 322 322 322 321 318 317 319 319 314 302 307 315 313 310 307 310 308 307 307 308 306 303 302 300 297 296 294 300 298 299
327 327 326 326 326 325 324 324 324 324 323 322 321 320 320 321 321 321 321 320 318 318 318 319 312 304 301 311 305 307 308 306 306 306 306 305 306 302 301 297 295 295 292 293 295 299 297
327 327 326 326 326 325 325 324 324 324 323 322 321 320 321 321 320 320 319 315 318 318 317 316 309 300 302 300 305 305 306 306 303 305 303 303 302 299 297 296 290 293 293 293 292 298 297
327 326 326 326 326 325 325 325 325 325 324 323 322 321 322 321 321 321 313 310 310 306 305 302 303 300 300 304 306 303 305 303 303 302 298 298 296 294 298 298 298 294 293 292 295 298 295
326 326 326 326 326 325 325 325 325 327 326 324 322 322 323 322 321 316 310 306 303 302 300 303 301 301 302 305 300 301 305 301 299 296 296 295 293 299 297 295 294 294 291 292 296 297 293
325 325 325 325 325 325 325 325 325 325 324 322 321 321 322 321 319 315 307 305 310 307 298 302 300 299 300 303 299 299 302 300 298 294 294 295 298 298 295 295 292 293 291 292 292 294 295
325 325 325 325 324 324 324 323 321 320 319 319 320 321 321 320 316 312 310 307 310 306 298 299 297 298 300 300 295 298 301 299 297 294 294 294 295 293 293 292 294 290 296 293 291 290 289
325 325 324 324 323 320 319 318 317 317 316 316 318 319 321 319 318 314 310 309 308 302 288 299 295 303 300 296 296 296 299 300 295 294 294 294 292 291 291 293 294 292 292 290 289 289 288
325 323 321 319 318 317 316 314 313 312 312 312 312 317 317 316 315 311 309 308 304 297 287 297 295 294 295 295 294 296 297 299 296 294 293 294 294 294 295 293 293 292 291 290 289 289 285
320 319 317 316 314 313 312 311 310 309 309 309 309 311 316 317 314 310 309 311 296 288 300 296 293 293 292 291 292 293 294 293 293 291 293 294 292 293 293 292 292 291 290 287 285 285 284
318 315 314 312 311 310 309 308 308 307 307 307 307 310 315 315 311 310 312 304 287 294 296 298 297 296 296 296 294 292 292 294 293 291 291 290 289 292 293 294 295 291 291 287 280 282 286
314 312 310 309 308 307 307 306 306 304 304 305 306 312 314 316 311 313 307 292 290 294 298 297 298 295 295 295 295 293 291 293 294 293 292 292 291 291 291 292 293 289 286 292 286 286 283
311 309 308 307 305 304 303 303 302 301 301 303 304 308 308 314 312 310 300 292 294 298 300 300 293 296 292 294 292 293 293 295 293 294 294 293 288 295 293 291 292 290 293 286 286 279 278
309 307 306 304 303 303 302 301 300 300 301 303 303 298 306 312 313 302 290 292 295 301 302 298 296 294 294 293 294 293 293 297 296 297 294 295 292 291 291 291 290 289 286 286 286 285 279
306 305 304 303 302 301 301 300 300 301 304 303 302 291 309 312 297 298 292 295 297 297 300 298 299 297 295 295 292 292 291 294 300 296 292 295 289 285 289 295 293 292 290 290 284 282 285
304 303 301 301 301 300 300 300 299 300 300 300 297 296 307 308 289 291 296 295 297 296 296 295 294 296 296 293 288 292 293 298 298 296 294 295 288 283 285 288 290 288 290 290 290 287 283
303 303 302 301 301 301 300 299 299 300 299 299 294 288 295 301 300 294 291 291 292 297 296 297 295 297 294 291 294 290 290 295 295 294 295 294 289 286 281 285 289 285 287 289 288 282 283
302 302 301 301 300 301 300 299 298 300 298 297 291 287 291 289 291 292 292 291 288 288 293 294 291 292 289 286 287 287 290 291 292 292 292 291 284 286 287 288 288 287 286 286 284 284 279
301 301 302 301 300 301 300 299 298 300 297 292 287 287 289 287 288 289 290 287 287 288 289 287 287 289 288 285 286 284 287 287 286 289 288 289 282 284 280 285 285 282 284 285 283 283 282
301 301 301 301 301 301 301 300 300 301 296 289 290 291 288 284 284 284 285 286 284 286 285 285 285 285 284 286 286 287 287 287 287 284 284 284 282 280 276 282 280 275 279 281 282 284 283
300 301 301 301 301 301 302 301 300 301 297 293 291 290 284 279 282 282 283 284 283 283 283 284 284 283 286 289 287 286 285 284 284 284 286 281 281 280 275 277 269 280 282 282 280 282 279
303 302 302 301 302 301 301 302 300 300 299 294 292 289 284 278 281 281 282 282 282 282 281 282 284 285 287 284 279 275 274 273 277 281 282 284 281 276 272 272 276 278 280 279 277 278 280
302 302 302 302 302 302 302 302 302 301 301 297 294 294 288 280 279 282 281 281 279 279 279 280 283 283 284 281 276 270 269 270 271 273 278 279 281 276 269 267 265 275 278 280 279 272 279
301 301 301 302 302 302 302 302 302 301 301 297 295 296 290 282 283 283 280 280 282 280 278 277 278 279 281 277 271 269 270 273 269 268 270 271 272 271 272 270 273 278 278 280 269 272 280
301 301 301 302 302 302 301 302 302 301 302 296 293 296 290 284 285 285 286 282 281 281 277 276 277 276 276 273 271 272 271 272 271 273 272 271 270 268 266 266 265 278 277 273 278 281 281
300 300 301 301 301 301 301 301 302 302 301 301 292 294 295 287 286 288 289 289 288 286 284 276 280 275 279 276 273 274 270 271 271 268 274 270 274 272 271 272 278 280 280 281 282 281 281

GFSGBSN_sfc_thetae_009.txt.gz
Theta_e
323 321 321 321 321 321 322 322 322 323 323 323 323 323 323 323 323 323 324 324 324 324 323 323 322 322 318 306 306 322 330 332 318 315 312 310 308 307 303 304 306 304 305 306 307 307 306
325 325 324 324 324 323 323 324 324 324 324 324 323 323 323 322 323 323 323 323 324 323 322 322 322 320 312 301 313 325 325 322 315 313 312 312 308 309 305 304 303 305 304 304 305 304 305
325 325 325 325 325 323 323 324 325 325 324 324 323 322 322 322 323 323 323 323 322 321 320 319 321 318 307 307 316 323 321 316 316 314 311 313 311 307 307 303 306 303 299 302 303 304 302
327 326 326 326 325 324 324 324 324 324 324 323 322 322 321 321 322 322 322 322 321 318 318 319 320 316 304 309 317 316 315 312 314 313 312 311 311 308 305 305 302 299 300 295 302 301 302
327 326 326 326 326 325 324 324 324 324 323 322 322 321 321 321 321 321 322 320 317 318 319 319 316 312 303 310 306 310 312 308 310 309 308 308 309 305 304 299 297 300 294 296 298 303 300
327 326 326 326 326 325 324 324 324 324 323 323 322 321 322 322 321 321 320 315 318 318 318 317 311 303 303 302 307 307 309 310 306 307 304 304 304 300 300 298 291 296 296 297 296 301 299
326 326 326 325 325 325 324 324 324 325 324 323 322 322 323 322 322 322 318 316 315 311 309 306 309 303 309 307 309 306 307 306 306 304 299 302 297 295 299 301 300 298 296 295 298 302 299
326 326 325 325 325 325 324 324 325 326 326 324 323 323 323 323 322 320 317 312 306 305 304 313 311 308 307 307 302 304 307 302 301 297 300 297 294 300 302 298 297 297 295 294 298 300 296
325 325 325 325 325 325 324 324 325 326 325 323 322 322 322 322 321 319 314 309 311 309 302 308 306 304 304 305 303 304 304 303 300 298 297 296 300 302 299 297 295 295 294 294 294 297 298
325 325 324 324 324 324 323 323 323 323 321 321 321 321 321 321 316 320 316 311 312 309 299 301 301 300 301 303 299 301 304 302 300 297 300 298 300 296 295 294 296 292 298 296 294 292 290
324 324 323 323 323 322 322 322 321 319 318 318 319 320 321 320 322 317 312 312 312 307 288 301 297 306 302 298 298 298 302 301 297 297 296 296 294 294 293 295 297 295 295 293 293 292 291
325 324 323 322 322 320 319 317 316 315 313 313 314 318 319 319 322 316 313 311 310 297 288 299 298 297 297 297 296 299 299 301 300 296 297 296 297 296 297 297 296 295 293 294 294 292 286
325 324 322 320 317 316 315 314 313 312 310 309 310 314 316 319 314 315 314 314 297 289 301 298 296 295 295 294 294 295 296 294 295 292 293 297 296 297 296 294 295 293 291 287 287 287 285
322 318 316 315 314 313 312 311 310 309 307 307 307 311 316 316 311 310 314 303 288 294 296 301 299 300 297 299 296 295 296 296 300 295 293 291 289 296 296 295 294 295 294 288 282 284 288
317 315 314 313 311 310 309 308 307 305 304 305 307 312 314 320 316 315 308 291 292 295 298 298 298 294 295 298 297 298 297 296 297 298 292 291 291 296 295 296 295 292 288 293 285 287 284
313 312 311 309 309 308 307 305 304 303 303 304 308 308 308 316 314 314 300 292 295 299 299 299 292 296 292 295 295 295 295 298 296 296 297 295 288 296 294 294 295 294 297 287 286 278 278
310 309 307 306 305 304 303 302 302 301 302 303 305 296 306 312 314 304 290 293 297 300 302 298 295 294 295 293 294 294 294 298 299 298 296 295 292 291 295 292 290 290 288 289 289 286 280
308 307 305 304 303 303 302 301 301 301 305 303 302 292 311 314 298 298 294 295 297 297 301 298 298 297 294 294 292 292 292 295 301 299 293 296 290 286 289 295 297 294 291 291 284 282 285
306 304 303 303 302 301 301 300 300 300 301 302 296 298 309 309 290 292 296 295 297 295 296 296 296 297 297 294 289 292 294 298 299 297 294 295 288 282 284 289 292 290 291 291 291 288 283
304 303 302 302 302 301 301 300 299 299 298 303 297 289 298 300 300 294 292 292 292 298 296 297 295 297 294 292 294 290 290 295 297 296 295 296 289 285 281 284 289 286 288 290 288 283 283
304 303 303 302 302 301 301 299 299 300 298 300 295 290 294 289 292 294 293 292 290 289 295 295 292 292 291 287 288 288 291 292 294 293 293 293 284 286 287 288 288 286 285 285 284 285 281
302 302 302 302 301 301 301 300 299 300 297 294 289 289 292 292 294 292 292 289 289 290 290 288 289 290 291 287 288 285 288 288 287 289 289 290 282 284 280 284 284 281 284 284 285 285 285
302 302 303 302 301 301 301 301 300 301 297 291 293 293 291 288 289 289 290 290 288 291 289 289 289 288 286 288 289 288 289 289 289 286 285 284 282 279 274 280 280 276 280 282 283 285 284
302 302 302 302 302 302 301 302 301 301 298 295 294 293 287 283 285 285 285 287 287 288 286 287 288 286 288 290 288 287 286 285 285 285 287 281 280 280 275 276 268 279 285 283 280 281 283
301 301 302 302 302 302 301 302 301 301 300 296 296 291 288 283 284 284 284 285 286 286 285 285 286 288 289 285 280 277 276 275 278 281 282 284 281 275 272 272 276 279 281 280 278 278 283
301 302 303 303 302 302 302 303 302 302 301 298 296 296 290 284 282 285 283 284 282 282 281 282 285 287 287 282 278 272 271 274 273 275 280 280 282 277 275 269 266 276 280 281 280 272 283
302 302 302 303 302 302 302 302 302 302 301 300 296 298 291 284 286 285 282 282 285 283 281 281 281 281 285 279 274 273 272 276 271 271 273 273 275 273 273 271 274 282 280 281 270 274 282
301 301 302 302 302 302 302 302 302 302 302 299 297 299 292 286 287 287 287 284 284 284 280 278 279 279 279 275 275 274 273 275 273 275 274 273 272 271 271 268 266 280 279 274 279 283 282
301 301 301 302 302 301 302 302 302 302 302 301 292 296 298 289 289 292 291 292 290 289 286 281 283 280 282 278 278 278 274 275 273 269 278 271 275 273 274 273 280 281 281 283 284 283 282

GFSGBSN_sfc_thetae_012.txt.gz
Theta_e
323 322 321 321 321 321 321 322 322 323 323 324 323 323 323 323 323 324 324 325 325 325 323 323 323 323 318 308 307 322 330 331 320 316 311 309 306 305 300 301 302 300 302 304 304 303 301
324 323 322 322 323 323 323 323 324 324 324 324 324 323 323 322 323 323 324 324 324 323 322 321 321 321 314 301 315 322 322 321 314 312 309 309 307 306 302 301 299 302 301 301 301 301 301
325 325 325 325 324 324 323 323 324 325 325 324 323 323 322 322 323 323 323 323 323 321 320 320 320 318 309 306 317 323 321 316 314 312 309 310 310 306 304 300 302 301 295 298 300 300 299
326 325 325 325 325 324 323 323 324 325 324 323 323 322 322 322 322 323 323 323 321 318 319 319 321 316 304 311 317 316 315 313 314 313 310 309 310 306 303 303 300 296 295 290 298 298 297
326 326 326 326 325 325 324 324 324 324 323 323 322 322 322 322 322 322 322 322 317 318 319 320 317 313 302 312 307 310 311 308 309 309 308 308 308 302 301 295 292 294 288 291 295 299 296
326 326 326 325 325 325 324 324 324 324 323 323 322 322 322 322 322 322 322 321 318 318 318 317 313 304 303 302 307 308 308 309 306 305 304 303 300 296 295 292 286 290 290 292 291 296 296
326 326 326 325 325 325 324 323 323 324 324 323 322 323 323 323 322 323 320 315 312 310 309 307 309 302 308 306 309 306 308 305 305 302 296 299 293 290 294 296 296 294 292 291 293 298 294
326 325 325 325 325 324 324 323 324 325 325 324 323 323 324 323 323 322 318 312 306 306 302 312 312 313 310 308 303 304 306 300 299 294 297 294 290 297 299 298 295 293 290 290 294 297 292
325 325 325 324 324 324 323 323 324 325 325 325 323 322 323 323 322 320 315 309 312 310 300 307 308 307 305 305 304 302 303 301 297 295 295 293 297 300 297 295 294 293 290 290 291 294 292
325 324 324 324 323 323 323 323 323 323 324 323 323 323 322 322 317 320 313 312 313 310 296 300 301 300 302 303 299 302 304 301 299 295 296 295 299 296 294 293 293 289 294 293 292 288 284
324 324 323 323 322 321 321 321 321 321 320 320 321 322 321 320 319 316 312 313 312 307 285 301 297 306 303 298 298 298 302 299 295 296 293 294 292 291 291 293 295 292 292 290 289 287 286
324 324 323 322 321 321 321 321 320 318 317 317 317 319 320 318 320 316 314 311 309 295 286 296 298 297 296 297 297 299 299 299 298 294 295 294 293 293 294 295 294 293 291 290 288 287 280
325 324 323 322 322 321 321 320 318 316 313 312 311 316 317 318 313 315 314 311 296 288 301 296 294 296 295 293 294 295 294 291 291 288 288 292 292 293 294 290 291 290 288 281 279 278 279
325 324 322 322 321 319 317 315 314 312 310 308 308 315 315 316 311 311 309 299 287 295 296 300 299 299 297 297 295 294 294 293 297 292 288 288 286 293 293 292 290 291 290 283 277 276 279
323 320 319 317 316 314 313 311 309 307 306 306 308 310 314 319 315 314 307 291 292 295 299 298 298 293 293 296 297 295 294 294 296 296 290 288 288 292 294 294 293 289 286 291 282 279 278
317 316 315 314 312 311 310 308 306 305 305 306 308 306 306 316 315 312 300 293 295 300 299 298 292 294 289 293 292 293 292 295 295 295 295 293 286 294 291 292 291 290 294 284 284 277 273
311 311 310 309 308 307 306 304 304 303 304 308 303 298 307 312 313 303 290 292 297 301 300 296 293 292 293 292 294 293 292 294 297 294 294 293 291 288 292 290 289 288 285 289 288 283 275
309 308 307 306 305 304 303 303 302 302 303 304 301 291 309 313 295 296 292 295 298 297 299 298 297 295 293 294 292 291 291 294 298 296 291 293 289 282 286 292 294 290 289 288 282 280 283
307 306 305 305 304 303 303 302 302 305 304 301 296 297 310 309 290 292 295 295 297 295 295 295 294 295 295 292 289 291 292 296 298 295 292 293 285 279 279 285 288 287 288 288 287 284 280
306 305 304 303 302 302 301 301 301 299 299 302 296 289 298 300 299 293 292 292 291 297 295 296 294 296 293 291 293 289 290 294 295 295 295 295 287 281 276 280 285 282 285 286 285 281 280
305 303 303 303 302 302 302 301 301 300 297 298 295 289 294 288 291 293 293 292 289 290 295 295 292 292 291 288 288 287 289 290 294 293 292 291 279 283 284 286 285 283 282 283 281 282 279
304 304 303 302 302 302 301 300 299 300 297 294 290 288 291 290 292 292 292 289 288 290 291 290 289 290 290 287 288 283 286 286 285 287 287 288 275 279 274 281 281 279 280 281 281 281 280
302 302 303 303 303 302 302 301 300 300 297 290 292 292 290 289 287 288 289 289 289 290 291 290 289 288 286 286 287 287 287 287 287 284 282 280 275 269 271 277 276 269 276 278 280 282 281
302 302 302 303 302 302 301 302 301 301 298 294 293 291 286 283 285 287 285 288 288 288 286 287 288 286 286 289 287 285 283 283 283 283 286 279 273 271 266 267 261 275 281 279 278 278 278
302 302 302 302 302 303 302 301 302 301 301 294 294 290 287 281 284 283 284 283 284 284 283 284 285 287 288 283 276 270 269 271 275 280 280 282 279 274 265 264 272 276 278 276 274 273 277
302 301 302 302 303 302 302 302 302 302 302 296 294 295 288 281 281 284 283 283 280 279 279 280 282 285 282 280 272 262 262 269 267 272 277 278 280 275 264 263 258 272 277 279 278 268 273
302 302 302 302 302 302 302 302 302 302 302 297 294 296 288 281 284 283 281 281 284 282 277 278 276 277 281 276 266 265 264 274 265 264 265 264 265 268 269 267 267 275 276 278 264 269 275
301 301 301 302 302 303 302 302 301 302 302 298 294 296 289 283 284 285 286 282 282 281 275 274 275 275 275 269 269 273 267 272 269 272 270 269 264 262 262 259 261 276 275 271 274 279 278
301 301 301 301 301 302 302 302 302 302 302 301 292 297 296 288 285 289 290 290 288 287 282 276 278 274 279 274 273 273 266 270 268 261 275 266 272 266 269 268 277 278 277 280 280 277 279

GFSGBSN_sfc_thetae_015.txt.gz
Theta_e
321 321 321 322 322 321 322 322 322 323 323 323 323 323 323 323 323 324 324 325 325 325 324 323 323 323 314 303 303 321 329 330 318 312 307 305 301 300 295 297 298 295 298 301 301 300 299
323 323 323 322 322 323 323 323 324 324 324 323 323 322 322 322 323 324 324 325 325 324 323 321 321 321 308 297 315 322 321 317 311 309 305 305 303 303 298 297 295 297 297 297 299 299 298
325 324 324 324 323 323 322 323 323 324 324 324 323 322 322 322 323 324 324 324 324 322 320 321 320 317 306 302 317 320 319 312 311 309 306 307 306 302 300 297 300 297 293 295 296 297 296
325 325 325 325 324 323 323 323 323 324 324 323 322 321 321 321 322 323 324 324 323 319 320 320 320 312 298 307 311 315 312 308 310 308 307 306 306 303 299 300 298 293 290 287 295 296 296
325 325 324 323 324 324 323 323 323 323 323 322 321 321 321 322 322 322 322 323 320 318 319 321 312 306 299 310 305 306 306 306 306 305 303 307 304 298 297 292 288 289 285 288 292 296 295
326 325 325 325 325 325 324 323 323 323 322 322 321 321 322 322 322 322 322 322 317 317 317 318 313 298 300 299 304 305 303 307 303 301 300 299 297 292 290 289 283 286 286 289 288 294 293
326 325 325 325 324 324 324 323 323 323 322 322 322 322 323 323 323 323 319 311 307 305 306 303 302 298 301 304 306 303 304 302 302 298 291 294 289 286 290 291 291 289 288 287 290 295 291
325 325 325 325 324 324 323 323 323 324 324 323 323 323 324 323 323 322 316 306 303 304 301 308 309 309 305 304 300 301 303 297 296 291 293 290 287 293 294 294 293 290 288 287 291 294 291
325 325 325 324 324 324 323 322 323 324 324 324 323 322 323 322 321 318 310 305 308 304 297 303 305 303 302 304 300 298 300 297 293 291 291 289 293 296 294 292 291 289 288 287 288 291 290
325 324 324 324 323 323 322 322 322 322 322 323 323 322 322 321 315 315 308 308 309 304 291 297 299 298 300 300 296 299 301 298 295 292 291 290 295 294 292 291 292 287 292 291 290 286 283
324 324 323 322 322 321 321 321 321 321 320 321 321 321 321 320 313 312 309 309 308 302 282 296 295 303 299 296 296 296 299 296 292 293 291 291 290 289 289 291 293 290 291 288 287 285 284
324 323 323 322 321 321 321 321 321 320 320 319 319 320 320 318 315 313 310 307 305 292 283 293 295 295 293 294 294 296 295 295 295 291 291 291 291 291 292 292 292 292 289 288 287 285 278
324 323 323 322 321 321 320 321 321 321 319 318 317 318 317 318 312 312 311 308 294 287 298 292 291 293 292 291 291 293 290 288 288 285 284 290 290 291 292 288 290 289 286 281 278 276 278
324 323 322 322 322 321 320 320 320 318 315 313 314 317 315 315 311 312 309 299 287 295 294 297 295 294 294 291 291 291 289 287 291 289 286 286 284 290 292 291 289 287 289 283 277 275 277
322 322 321 321 321 321 320 319 316 313 312 312 313 313 314 316 312 313 305 289 290 295 298 296 295 291 291 294 295 290 289 290 295 294 290 288 287 291 292 292 294 288 285 289 282 275 276
321 321 320 318 317 315 314 312 310 309 310 311 307 305 307 316 313 311 298 293 294 299 298 296 290 292 287 290 291 289 290 292 292 293 293 290 284 292 290 291 291 290 293 283 283 272 270
314 315 314 313 312 311 310 309 308 308 309 310 303 299 306 312 313 303 291 294 297 300 299 295 290 290 289 289 292 290 292 292 293 291 293 291 289 287 289 287 287 287 285 287 287 282 274
310 309 308 308 308 307 307 307 308 308 309 307 301 294 308 311 294 295 292 295 298 296 299 297 295 293 291 291 291 290 290 292 296 294 290 291 288 279 285 290 291 289 287 287 282 278 279
309 308 308 307 306 305 305 304 305 307 306 302 296 297 308 308 289 291 295 295 297 295 295 295 293 294 293 291 289 290 291 294 296 294 292 293 284 275 278 282 288 285 286 286 287 284 281
307 306 306 305 304 304 303 302 305 305 302 301 295 290 297 300 295 292 292 291 291 296 294 294 293 294 292 289 291 288 288 292 294 293 296 296 288 280 277 277 283 281 282 284 284 279 277
306 305 305 304 303 303 302 301 301 299 299 300 294 289 293 288 290 292 292 291 290 289 293 294 291 291 290 288 287 287 290 291 292 295 291 290 279 283 283 284 283 282 281 282 280 281 277
305 304 305 304 304 303 302 302 301 300 298 294 288 287 289 289 292 292 291 288 289 289 291 289 289 291 291 288 288 282 286 285 285 286 286 288 276 279 273 281 281 278 280 280 280 280 279
304 305 304 304 303 303 302 301 301 300 297 288 289 290 289 287 286 288 288 289 289 291 289 289 290 289 286 285 286 286 286 286 286 284 282 281 276 270 269 278 275 268 276 277 278 279 278
303 303 303 304 304 303 303 302 301 300 297 291 291 289 284 281 285 286 285 289 288 288 287 285 287 286 285 288 286 283 282 282 281 282 285 279 274 268 264 264 259 274 278 279 277 278 276
302 303 303 303 303 303 302 302 302 301 300 292 292 288 284 275 284 283 283 282 283 286 285 284 283 286 286 282 277 270 269 272 275 277 279 283 277 265 263 257 269 274 277 276 275 272 276
302 302 302 302 303 303 303 302 302 302 302 294 292 291 285 279 279 283 282 283 279 278 278 280 282 283 283 280 271 262 262 267 266 271 277 279 280 273 262 264 259 271 277 278 277 268 272
302 302 302 302 302 302 302 302 302 302 302 295 291 292 285 275 282 282 279 281 283 280 276 276 277 278 281 275 261 263 264 273 265 263 263 262 262 271 271 268 267 273 275 278 264 268 271
301 301 302 302 302 302 302 302 302 302 302 298 292 292 286 278 282 284 284 281 281 279 274 274 274 274 273 266 266 272 265 271 268 271 270 268 264 260 258 255 261 276 274 271 274 278 277
301 301 301 301 301 302 302 303 302 302 302 300 292 294 292 284 282 287 288 287 286 285 278 272 274 271 277 270 267 268 262 265 265 261 273 267 271 265 268 267 276 277 276 279 279 276 279

GFSGBSN_sfc_thetae_021.txt.gz
Theta_e
324 322 322 322 321 321 322 321 321 322 322 323 322 322 322 322 323 323 324 325 326 326 325 323 322 322 312 299 301 317 327 325 311 308 303 302 299 297 293 294 295 294 295 297 299 298 296
325 324 322 321 321 320 322 321 322 322 323 323 322 322 322 322 322 323 324 325 326 325 325 321 321 321 302 295 312 318 314 309 308 305 302 303 300 300 296 294 293 294 295 295 296 296 295
324 323 322 322 320 320 322 322 322 323 323 323 322 322 321 321 322 323 324 325 325 324 322 321 321 316 303 300 314 316 312 308 308 305 302 303 302 299 296 293 296 294 291 292 293 293 293
323 323 322 323 322 322 322 322 322 322 322 322 322 321 321 321 322 322 323 324 323 323 320 320 320 309 298 305 310 312 308 306 306 305 304 303 302 300 296 296 294 290 288 285 292 293 293
324 324 323 323 323 323 322 322 322 322 322 321 321 320 320 321 321 322 322 323 320 320 320 321 308 301 297 309 304 304 305 304 303 302 302 305 301 295 295 289 286 286 282 284 289 293 292
324 324 323 323 323 323 322 322 321 322 321 321 320 320 320 321 321 322 323 321 318 316 317 316 312 298 299 297 301 302 302 304 300 299 298 298 293 290 288 286 282 283 283 285 286 290 290
324 324 323 323 323 322 322 322 322 322 321 321 320 320 320 321 322 323 319 311 305 304 306 300 298 297 298 300 303 299 302 301 299 295 290 292 288 286 288 289 287 286 285 285 287 291 288
324 324 324 323 323 322 322 321 322 323 323 321 320 320 321 322 323 323 315 306 304 303 300 306 304 301 302 302 298 298 301 295 293 289 291 288 285 291 290 290 289 286 284 285 288 291 289
324 323 324 323 323 323 322 322 322 323 322 321 320 320 321 323 321 317 310 306 306 303 298 301 304 304 301 301 299 299 299 295 292 289 289 287 291 293 291 288 287 286 285 285 287 289 287
324 323 323 323 322 322 322 321 321 321 320 320 320 320 321 320 317 313 307 307 306 304 291 295 298 298 298 300 295 298 298 295 291 290 289 288 292 291 288 288 289 285 290 289 288 285 282
324 323 323 322 322 321 321 321 320 320 319 319 320 320 321 321 311 309 310 307 305 301 281 295 294 301 297 297 294 293 297 295 290 290 290 289 289 288 287 289 291 288 289 287 285 283 280
319 323 322 322 321 321 321 320 320 320 319 318 319 319 320 319 316 313 308 307 303 291 283 290 293 292 291 291 292 293 293 294 293 290 288 290 290 290 291 289 291 290 287 286 284 282 277
318 320 322 322 321 321 320 320 320 320 319 318 318 319 319 320 313 311 309 306 293 287 295 289 288 290 289 288 289 290 288 287 286 283 283 286 288 289 290 287 287 286 285 279 277 275 277
317 317 319 322 321 321 320 320 320 320 319 318 318 319 319 319 314 309 309 300 286 292 292 292 289 289 287 289 288 288 286 285 287 286 283 284 284 288 290 289 286 285 285 280 274 274 277
316 316 317 319 321 321 321 320 319 319 318 318 318 318 319 319 312 312 306 291 292 294 296 292 292 286 286 290 288 286 285 285 289 289 288 284 285 288 288 290 290 285 283 287 282 271 274
316 315 315 315 319 319 319 319 318 318 318 318 316 315 315 317 313 311 302 295 296 300 298 296 288 291 286 289 288 285 285 289 290 290 291 289 284 288 287 289 288 287 289 282 280 273 270
317 315 314 316 318 318 318 318 318 317 317 317 312 304 309 314 313 305 295 295 297 301 298 295 292 290 289 289 289 285 288 290 292 289 292 290 288 284 287 286 285 285 284 285 284 280 274
311 315 316 316 318 318 317 317 318 317 317 314 306 300 308 313 299 301 298 297 299 299 299 297 295 294 291 289 288 287 288 290 293 292 289 291 287 279 284 287 287 286 285 286 282 278 278
309 309 309 311 311 311 313 314 314 315 315 307 300 298 307 307 295 293 295 296 298 295 296 295 294 294 293 290 288 288 289 292 292 292 290 292 283 275 282 283 285 284 284 284 284 282 277
308 308 308 307 307 307 308 311 307 308 306 304 297 291 297 300 297 296 293 293 293 297 295 296 295 294 292 290 291 289 288 291 292 292 296 296 287 284 281 281 283 281 282 283 283 277 281
308 307 307 306 305 305 305 306 305 306 305 302 295 292 294 288 291 294 296 294 293 291 296 296 292 293 291 287 287 288 289 290 290 292 290 291 282 282 283 282 283 283 282 281 281 280 277
308 307 306 306 305 303 303 303 303 304 304 296 291 290 292 291 295 293 294 291 292 294 293 292 292 293 293 291 290 286 289 288 287 286 287 286 279 280 278 283 283 282 283 283 284 283 281
303 307 306 306 304 303 303 302 301 301 300 293 292 292 292 289 290 291 290 292 292 294 291 293 294 292 290 292 294 289 290 289 289 287 284 284 279 278 279 278 278 275 276 279 281 281 280
303 304 306 305 305 303 303 303 301 300 297 294 292 292 287 284 286 287 289 291 290 291 289 287 289 290 287 287 287 285 282 282 285 285 286 281 279 277 273 269 269 278 276 278 278 278 277
302 303 304 306 305 304 304 303 302 301 298 294 293 290 287 283 287 287 288 288 289 292 288 286 285 286 288 287 282 280 277 280 278 278 280 283 280 273 272 266 272 276 276 275 275 273 276
302 302 303 304 305 304 304 303 302 301 299 294 293 293 287 283 282 287 286 286 284 285 282 280 283 284 284 282 280 275 273 276 271 272 277 279 280 278 265 265 265 273 276 278 277 268 272
301 302 302 303 304 304 304 304 303 302 300 293 291 292 287 282 284 283 283 283 285 283 280 279 281 282 283 278 273 272 274 275 270 268 268 268 271 273 271 270 267 272 275 277 266 271 271
301 302 302 302 303 303 303 304 303 303 302 294 291 292 287 281 283 285 285 283 282 283 279 278 281 280 278 277 276 274 270 272 269 271 271 269 267 266 265 260 263 276 275 272 275 275 276
301 301 302 302 302 303 303 303 303 303 303 299 290 292 291 284 283 287 287 288 287 286 281 277 280 277 280 274 271 272 268 268 267 265 273 270 273 269 271 270 276 277 277 279 278 276 277

GFSGBSN_sfc_thetae_024.txt.gz
Theta_e
325 324 322 321 321 321 321 322 321 321 321 322 322 322 322 322 322 323 324 325 326 325 325 324 322 322 310 298 301 316 325 323 310 306 302 300 297 295 290 293 293 294 293 295 297 296 296
325 324 323 322 321 321 320 321 321 321 322 322 322 321 321 322 322 323 324 325 326 325 325 322 322 321 300 295 311 315 311 307 306 304 301 301 299 299 295 292 292 292 293 294 295 294 293
325 325 324 323 322 322 320 320 321 322 322 322 322 321 321 321 322 323 324 324 324 324 323 321 321 315 300 301 314 313 309 305 305 304 301 301 301 298 296 293 295 293 290 292 292 291 292
324 325 324 324 323 322 320 320 322 322 322 322 321 321 321 321 321 322 323 323 324 322 320 320 320 307 299 303 311 311 306 305 304 303 303 301 301 299 295 295 292 289 287 285 290 292 291
324 323 323 323 322 321 321 321 322 322 321 320 320 320 320 320 320 321 322 323 318 319 321 321 307 300 297 309 304 304 303 303 301 301 302 304 300 294 294 289 286 285 284 283 288 292 290
324 323 322 322 322 322 321 321 322 321 321 320 319 319 320 320 320 321 322 322 318 315 316 315 309 298 299 296 300 301 301 302 299 298 298 297 292 289 287 286 283 283 282 284 285 288 288
324 323 323 322 322 321 321 321 321 320 319 320 319 320 320 320 321 323 319 310 304 302 304 300 298 298 297 299 301 298 301 300 297 294 289 290 287 286 288 289 287 285 284 285 286 290 288
324 323 323 323 322 322 321 321 321 322 321 321 320 320 320 321 322 322 317 306 304 303 300 305 303 300 301 300 296 297 301 295 292 288 289 287 285 290 290 289 288 285 284 284 287 289 288
324 323 323 323 322 322 321 321 321 322 321 320 319 319 320 321 322 319 312 308 305 303 298 301 303 303 303 301 297 297 299 294 290 288 288 286 290 291 290 287 286 285 284 283 285 287 287
324 323 323 322 322 321 321 321 320 320 320 320 319 319 319 321 317 314 309 311 306 304 292 294 297 298 298 300 296 298 298 295 290 290 288 287 290 291 287 287 287 283 288 288 286 284 282
323 323 322 322 321 321 320 320 320 320 319 319 319 319 319 320 312 309 311 307 304 302 281 294 295 300 296 297 294 294 296 294 289 290 289 289 288 287 287 288 289 287 289 287 285 283 280
319 323 322 321 321 320 320 320 320 319 319 318 318 318 319 319 315 312 307 306 304 292 282 290 292 291 292 291 291 292 293 294 293 290 288 289 290 290 290 288 289 289 287 285 283 282 276
317 318 318 321 321 320 320 320 320 320 319 318 318 318 318 321 313 309 308 306 293 286 293 289 288 289 289 288 289 289 288 287 286 284 283 286 288 289 289 286 286 286 284 279 277 275 277
318 317 318 318 321 320 320 320 320 320 319 318 318 318 317 321 315 309 308 299 286 292 291 291 289 287 287 288 287 288 286 285 287 285 282 283 282 288 290 289 286 284 285 280 274 274 277
319 317 317 317 317 320 320 319 319 319 318 317 317 316 317 320 313 312 304 292 291 292 295 290 289 285 285 287 287 286 284 284 287 287 287 283 285 287 287 288 290 284 282 286 280 269 273
317 318 316 316 316 316 318 319 318 318 318 317 315 313 313 321 313 310 300 295 294 298 296 292 289 289 284 287 286 284 284 287 289 289 291 289 283 287 286 289 287 286 288 281 280 273 271
312 318 316 315 314 314 316 318 318 318 317 317 314 307 315 321 313 304 294 296 299 301 299 294 291 289 287 287 287 284 286 288 290 289 291 289 287 283 286 284 284 285 283 284 283 281 276
310 310 315 314 315 316 317 318 318 317 317 314 311 301 314 315 301 301 296 298 300 300 300 297 296 294 291 290 287 286 287 290 293 291 288 290 286 279 284 285 286 285 285 285 282 278 277
309 309 309 309 311 314 316 317 317 317 316 311 303 301 311 314 296 296 299 300 300 298 298 295 294 296 293 290 289 288 289 293 292 292 290 291 284 275 279 283 283 283 284 284 283 282 277
309 308 308 307 307 308 311 311 313 311 312 307 299 292 297 300 302 300 297 296 295 298 297 297 295 295 293 291 292 289 288 291 292 292 296 295 285 282 280 281 284 281 283 283 285 282 283
306 308 307 306 306 306 307 307 308 307 307 303 296 292 295 291 295 297 300 296 294 292 296 297 293 295 294 289 289 289 290 289 290 293 291 292 282 283 283 283 283 283 283 281 281 284 283
304 308 307 306 304 304 305 305 305 305 304 296 292 291 292 291 295 295 297 294 294 295 294 291 292 293 295 292 291 287 289 289 288 287 289 288 284 283 278 283 282 281 283 281 284 284 282
302 304 307 306 305 304 303 303 304 303 301 293 292 293 293 290 290 292 292 294 294 296 292 295 295 293 292 294 294 290 292 292 292 288 286 285 281 276 279 277 279 278 280 282 282 282 284
302 302 304 306 305 304 304 303 302 301 299 295 292 293 289 284 287 289 290 292 292 295 290 289 292 294 287 290 291 289 285 285 288 285 287 284 280 280 274 274 271 278 275 279 284 283 281
303 303 302 304 306 305 304 303 302 300 299 294 293 291 287 284 287 285 286 286 290 291 286 287 285 285 289 289 284 281 279 281 280 278 281 284 282 274 275 272 276 278 276 275 276 276 277
302 303 302 303 304 305 304 304 303 301 299 294 293 294 288 285 284 288 286 285 284 284 282 281 283 285 286 285 282 277 275 278 275 273 278 281 283 282 270 270 270 273 276 278 278 271 274
301 302 302 302 303 304 305 304 303 302 299 293 291 294 289 284 285 285 285 284 287 285 281 280 281 282 284 281 277 276 276 278 274 269 268 274 274 276 274 274 274 274 275 277 270 274 272
300 302 302 302 302 303 304 304 304 302 301 294 290 292 288 283 284 284 285 283 283 286 282 280 281 280 280 279 279 276 275 274 272 273 272 272 272 268 270 270 270 276 275 274 277 276 277
300 301 301 302 302 302 302 303 303 303 302 297 288 291 291 284 283 287 288 287 287 288 283 281 283 279 282 279 277 275 271 271 270 269 273 271 274 271 274 273 276 278 277 279 279 277 276

GFSGBSN_sfc_thetae_027.txt.gz
Theta_e
325 325 324 322 321 321 321 321 322 321 321 322 322 321 321 322 322 323 324 325 326 325 325 325 323 323 307 298 301 315 324 324 309 306 302 301 298 297 292 295 295 295 295 296 297 297 296
326 325 324 323 322 321 321 320 321 322 322 322 321 321 321 321 322 322 323 324 325 325 325 323 322 321 299 296 311 313 308 307 306 303 301 301 299 299 296 294 294 294 295 295 295 295 295
326 326 325 324 323 322 321 320 320 322 322 322 322 321 321 321 322 322 323 324 324 324 323 321 321 314 299 302 313 311 308 304 305 303 301 302 301 299 297 294 296 294 292 293 293 293 293
326 326 325 325 324 322 322 321 320 320 322 322 321 321 320 321 321 321 322 323 323 321 321 320 320 305 300 303 312 310 306 304 303 303 303 302 302 300 297 296 293 290 289 288 292 293 293
326 325 324 324 324 323 322 322 321 320 321 321 320 319 320 320 320 320 322 322 320 320 321 320 306 299 298 309 305 305 304 302 301 301 302 303 300 295 295 290 287 287 286 285 289 293 292
326 325 324 323 323 322 322 321 320 320 321 320 319 319 319 320 320 320 322 322 318 315 315 313 307 299 299 297 300 301 301 302 299 299 298 297 293 290 287 288 284 285 284 285 286 290 290
326 325 323 323 322 322 321 320 320 321 320 320 319 319 320 320 320 322 320 310 304 301 303 301 299 298 297 299 301 299 301 299 297 295 290 291 289 287 289 289 288 287 285 286 287 290 290
326 324 323 323 322 321 320 320 321 321 321 319 318 319 320 320 321 322 318 306 303 303 299 305 303 299 299 299 295 296 301 295 292 288 290 288 286 290 290 289 288 286 285 285 287 289 289
324 325 323 323 322 321 321 320 320 321 321 319 319 319 320 320 321 319 314 309 305 303 298 301 303 302 302 300 296 295 299 294 289 287 287 286 289 290 290 287 286 285 285 284 286 287 288
323 324 323 322 322 321 320 320 320 320 319 319 319 319 319 319 316 316 312 316 306 304 291 294 297 300 298 299 295 298 298 295 290 289 287 287 290 290 286 286 287 283 287 287 286 285 283
318 319 322 322 321 320 320 319 319 319 318 318 319 319 319 320 311 312 312 307 304 302 280 294 294 299 297 298 295 294 296 295 290 290 290 290 288 287 287 288 288 287 288 286 286 284 283
318 317 319 321 321 320 320 320 319 319 318 318 318 318 318 318 315 311 307 305 304 291 281 290 292 291 293 291 291 292 293 295 293 289 288 289 290 290 290 289 289 288 287 285 283 282 277
316 318 317 318 318 320 320 320 320 319 319 318 318 318 317 320 313 308 308 304 292 285 293 288 288 289 290 288 289 290 289 287 287 284 284 286 288 288 289 286 286 285 284 279 278 276 278
314 315 318 317 317 317 320 320 320 319 319 318 318 317 317 319 313 309 307 298 286 291 290 289 288 288 288 288 287 287 286 285 287 285 283 283 282 288 290 288 286 284 285 280 275 275 278
313 313 315 317 317 317 317 319 319 318 318 317 317 316 316 318 313 312 303 291 290 291 294 289 288 285 284 286 287 285 285 285 289 288 287 282 283 286 287 288 289 284 282 286 280 270 275
312 312 313 317 317 316 316 316 318 318 317 317 314 313 312 319 314 311 299 294 294 297 293 290 289 289 284 285 285 284 283 287 288 290 291 288 283 286 286 288 288 286 288 282 280 273 270
311 311 311 315 316 316 315 315 315 317 317 316 313 306 314 319 313 306 294 294 298 299 297 292 291 289 286 285 286 283 285 286 289 288 292 289 288 284 286 285 285 285 283 283 284 281 275
308 310 310 310 314 315 314 314 316 317 317 314 311 301 315 317 301 302 297 296 300 301 300 297 294 292 290 289 286 285 285 288 291 291 288 291 287 280 283 285 286 285 285 285 281 278 277
306 308 309 309 309 310 314 315 315 316 316 314 306 305 315 313 295 296 299 299 300 298 300 298 296 295 294 290 288 287 286 292 292 292 289 291 285 278 281 284 284 283 284 285 284 282 277
304 306 309 308 308 308 309 314 315 316 316 312 300 294 299 306 306 300 296 296 296 301 299 299 296 296 292 291 294 288 288 291 291 292 296 296 286 284 284 283 284 282 283 284 285 278 280
303 304 306 307 306 307 307 308 310 311 310 305 298 293 295 294 295 300 300 297 295 295 300 300 294 296 295 291 291 291 290 289 290 294 292 293 285 283 284 284 284 284 283 282 282 285 283
302 302 305 307 305 305 305 306 306 306 306 297 292 291 293 291 294 295 297 297 295 297 295 294 295 296 297 295 295 291 292 289 289 289 289 290 286 283 280 283 283 281 283 283 285 285 284
303 302 303 304 306 304 304 304 304 304 303 294 293 294 294 292 290 291 293 295 296 299 295 298 297 297 294 297 295 291 295 293 293 289 288 288 283 284 282 278 281 280 282 282 283 283 285
302 303 302 302 304 305 304 303 302 303 300 296 293 294 290 285 289 289 290 293 292 296 294 290 295 295 289 292 293 292 288 288 290 286 290 285 284 285 273 276 274 279 276 283 284 284 281
301 302 303 303 302 305 304 304 302 302 301 295 294 292 289 285 287 285 288 289 290 289 286 287 286 286 293 290 285 282 281 283 280 278 283 285 284 277 275 275 278 277 276 279 280 279 280
300 301 301 303 302 304 305 304 303 301 300 295 293 295 290 285 285 288 285 286 284 283 282 281 284 285 288 285 283 279 276 279 276 275 279 283 285 284 274 273 272 275 276 278 279 275 276
299 300 301 302 302 302 304 305 304 301 299 293 292 295 290 285 285 287 285 285 287 285 281 281 282 284 284 282 279 278 276 279 275 273 273 276 276 279 276 275 277 276 275 278 273 277 274
298 299 300 300 302 302 303 304 304 302 299 292 289 293 290 284 284 285 286 286 285 285 282 280 282 281 281 281 280 278 277 276 275 273 274 275 275 274 275 273 273 277 276 276 279 277 276
297 298 299 300 301 302 302 303 304 303 300 295 286 291 290 283 283 287 288 288 288 291 284 282 283 280 283 280 280 277 274 273 274 273 274 275 279 276 278 277 277 279 279 280 280 278 277

GFSGBSN_sfc_thetae_030.txt.gz
Theta_e
326 326 325 324 322 322 321 321 321 322 322 322 322 322 321 321 322 322 323 324 325 325 325 325 324 323 314 308 308 319 324 327 316 312 310 308 305 304 300 302 303 302 302 302 304 303 303
327 326 325 325 323 322 321 321 322 322 322 322 321 321 321 321 321 322 323 324 325 325 325 324 323 322 310 305 317 317 313 312 312 311 309 309 306 306 303 302 301 302 301 302 302 301 301
328 327 326 325 324 322 321 320 321 322 322 322 322 321 321 321 322 322 322 324 324 324 322 322 321 317 309 310 319 317 312 310 312 310 308 309 309 306 305 301 302 300 299 301 302 300 300
328 327 326 326 324 323 322 321 320 320 320 321 321 321 320 321 321 321 322 323 322 321 321 321 320 312 308 309 321 314 313 310 310 310 310 310 310 306 304 302 300 298 298 297 299 299 299
328 327 326 326 325 324 322 322 321 320 319 320 320 320 320 320 320 320 321 321 321 319 321 321 313 308 306 314 312 312 312 308 308 308 308 307 308 303 302 299 297 296 295 295 297 299 298
328 327 326 325 325 324 323 322 321 321 319 319 319 319 319 320 320 320 321 322 320 317 317 315 311 306 305 302 306 307 309 308 306 306 305 305 303 300 299 297 293 295 293 293 295 297 297
324 327 326 325 324 323 322 321 321 321 320 319 319 319 319 319 320 321 322 319 312 308 310 308 307 305 302 304 306 305 307 305 305 304 299 299 298 295 298 299 298 296 295 295 295 296 296
322 322 324 325 324 323 322 321 321 321 320 320 319 319 319 320 321 321 322 314 311 309 305 310 308 304 303 305 299 303 306 302 301 297 298 296 294 300 297 296 295 294 294 295 295 295 295
320 320 323 324 324 323 321 321 321 321 320 319 318 318 319 320 320 320 317 316 311 310 306 306 308 307 304 303 301 300 304 300 298 295 296 296 296 297 295 293 292 293 293 294 293 293 294
320 320 320 320 323 322 321 320 320 319 319 319 318 318 318 319 316 318 314 320 315 311 299 300 301 306 302 303 299 301 304 301 296 295 295 295 296 294 293 293 295 292 295 294 292 291 290
316 319 319 318 319 321 320 319 319 319 318 318 318 318 318 319 317 313 315 320 315 309 286 300 299 303 301 302 300 297 301 300 295 294 295 296 292 292 293 294 294 294 294 293 292 291 290
315 316 316 318 318 320 320 319 319 319 318 317 318 318 318 317 316 316 311 310 310 295 286 294 296 295 297 296 295 296 297 300 299 295 294 296 296 295 296 293 294 293 292 291 291 290 285
314 314 315 316 317 317 319 320 320 319 318 317 317 317 317 319 312 312 309 307 295 289 298 291 292 294 295 291 292 294 293 293 294 291 291 292 294 294 294 291 292 293 292 287 284 284 284
312 314 314 314 314 317 317 319 320 319 318 317 317 317 316 319 317 310 309 301 289 295 296 294 292 293 293 292 291 291 291 292 295 293 291 290 289 292 294 296 292 291 293 289 282 282 286
310 311 313 313 313 317 317 317 317 318 318 317 317 316 315 318 313 311 303 292 293 296 300 292 291 290 291 291 292 290 290 293 296 294 292 289 290 292 291 293 296 289 287 293 285 279 285
308 310 311 312 313 314 316 316 316 316 317 317 314 312 312 319 314 309 298 294 297 301 300 295 292 294 290 289 290 290 289 294 293 295 297 294 289 290 290 294 293 292 294 286 287 282 281
306 308 309 311 311 311 316 316 316 315 316 316 313 305 314 319 315 304 292 295 299 302 299 296 295 294 293 290 292 289 291 292 296 293 296 295 293 288 290 289 290 288 288 289 290 288 284
304 306 308 309 310 310 311 316 315 314 314 313 310 300 315 317 300 301 295 299 301 301 301 300 298 299 293 292 291 291 290 295 295 294 290 295 292 287 288 290 291 294 292 290 288 283 285
303 304 306 307 310 309 310 311 314 314 315 312 305 305 315 313 294 295 299 299 301 299 300 300 297 298 298 294 291 292 293 296 295 294 293 294 290 286 287 288 289 288 289 291 292 288 287
302 302 304 306 308 308 309 309 311 315 315 311 304 297 303 307 305 299 296 296 296 302 300 302 300 301 297 294 295 294 292 294 295 296 297 298 292 290 287 290 292 287 288 289 290 287 288
303 302 303 304 306 308 307 308 308 309 314 308 299 295 297 295 299 300 299 298 295 295 300 301 297 299 298 293 294 293 295 292 293 295 295 295 289 291 293 292 291 290 289 288 288 290 288
303 303 303 303 305 307 307 306 306 306 306 302 291 291 294 292 295 299 299 296 295 297 297 295 296 298 298 295 297 295 297 296 293 292 291 293 289 291 287 290 289 287 290 289 289 291 291
302 302 303 303 303 304 305 305 304 304 303 295 294 295 294 292 291 291 296 297 296 299 300 301 299 298 296 298 302 301 300 299 297 292 290 290 289 285 285 286 284 282 286 288 289 291 291
300 301 302 303 303 302 305 305 303 303 302 297 294 295 290 285 289 289 291 293 293 294 296 294 297 298 299 296 295 292 289 289 292 289 291 290 288 287 285 281 277 286 285 292 290 291 291
298 300 301 302 302 302 302 305 303 303 302 297 295 293 290 285 289 288 290 291 292 289 287 289 287 287 296 292 286 284 283 284 282 279 284 288 288 281 278 279 285 277 281 286 286 287 289
297 298 300 301 302 303 301 304 303 303 302 297 295 296 291 286 286 289 288 288 287 286 283 282 285 286 290 287 284 281 278 283 279 279 282 285 288 285 278 279 278 283 281 284 288 282 284
296 297 298 300 301 302 303 303 304 302 301 297 294 297 291 285 287 288 286 286 288 286 283 282 284 285 286 284 281 281 280 282 278 279 278 280 280 282 280 279 281 286 281 282 280 285 284
295 296 297 299 300 301 302 303 303 302 300 296 292 295 292 286 287 286 288 287 286 286 283 283 284 283 283 283 283 281 279 279 278 278 279 280 279 279 280 279 278 281 279 281 285 281 283
295 295 296 298 299 300 301 302 303 303 301 296 290 293 292 287 286 288 289 289 289 292 285 283 284 284 287 284 283 280 277 277 278 276 276 278 283 281 282 282 280 282 282 284 284 283 281

GFSGBSN_sfc_thetae_033.txt.gz
Theta_e
327 326 325 324 324 323 323 322 321 321 322 322 322 322 321 321 321 322 323 324 325 325 326 325 325 324 319 311 311 320 324 327 318 315 312 309 306 305 302 303 305 303 304 305 306 305 305
328 327 326 325 324 323 323 323 322 321 321 322 322 321 321 321 321 322 323 324 325 325 324 323 323 321 314 307 318 318 315 315 315 313 310 310 307 308 304 303 303 304 304 304 305 305 304
329 327 327 326 325 323 322 322 322 322 322 321 322 321 321 321 321 322 322 323 324 324 322 321 321 318 312 311 320 318 313 312 314 312 309 311 311 307 307 303 305 303 300 303 304 304 302
329 328 327 327 325 324 322 322 322 322 321 321 321 321 320 321 321 321 321 322 321 322 321 322 322 315 310 313 322 316 315 312 313 313 312 312 312 308 306 306 303 300 301 298 303 302 301
329 328 327 327 326 324 323 322 322 321 321 319 319 320 320 320 320 321 321 321 321 321 320 322 317 312 308 316 313 317 315 310 311 311 311 310 311 306 304 300 299 300 296 299 300 302 301
324 325 327 326 326 325 324 322 322 321 320 319 318 319 319 320 320 320 321 322 323 318 318 316 313 308 309 305 310 312 313 312 308 309 307 307 306 302 302 300 294 297 297 299 298 300 299
323 323 323 325 325 325 324 322 322 321 320 319 318 319 319 319 320 321 321 322 313 312 313 309 310 309 306 306 309 309 311 308 308 306 301 304 299 297 300 302 302 300 298 297 301 300 297
320 322 322 322 323 324 323 323 322 322 321 319 318 319 319 319 320 321 322 313 313 311 306 313 312 310 306 308 301 306 309 304 303 299 303 298 296 302 304 302 300 298 296 297 301 299 296
317 319 320 320 320 322 323 322 322 322 321 319 318 318 319 319 320 319 317 316 315 313 306 307 311 309 306 305 304 303 306 305 301 300 299 298 300 300 299 297 296 297 296 297 297 296 297
316 316 317 320 319 319 321 322 321 320 320 319 318 318 317 319 315 317 313 319 321 315 298 300 303 309 306 306 302 306 308 303 299 298 299 299 302 297 297 296 298 294 300 297 296 294 291
313 315 316 316 317 318 317 320 320 319 318 318 318 318 317 319 315 312 315 321 322 314 285 302 302 307 306 304 302 299 305 301 298 297 298 297 295 295 295 297 299 296 298 297 296 294 294
311 313 315 315 315 316 317 318 320 319 318 317 317 317 317 317 319 318 319 319 317 296 285 296 299 299 299 302 298 298 299 302 302 298 297 298 298 298 298 296 298 298 296 294 294 294 287
308 311 312 314 314 314 315 317 319 319 318 317 317 317 316 319 310 315 316 312 294 288 300 294 295 297 299 296 295 297 294 294 294 291 293 296 296 298 298 294 295 296 294 289 286 285 286
307 308 310 312 313 314 314 316 317 319 318 317 317 317 315 318 320 313 313 302 287 293 295 299 297 297 295 296 295 294 294 293 297 298 297 293 291 297 297 298 295 293 295 290 283 285 288
305 306 308 310 311 312 313 314 316 317 317 317 317 315 314 316 319 313 305 289 290 294 298 297 295 293 293 294 295 293 293 296 298 298 294 294 294 298 297 298 300 292 290 297 289 284 286
304 304 306 309 310 311 312 312 316 315 316 316 313 311 311 318 317 310 299 291 295 301 301 302 293 296 293 293 292 292 294 298 298 299 302 299 292 294 294 295 296 295 297 287 289 284 283
305 304 304 307 308 309 311 311 314 315 315 315 312 305 314 318 313 303 292 292 297 303 304 300 297 296 297 295 294 291 296 299 300 298 299 299 295 290 291 291 292 290 290 291 292 291 286
303 304 304 304 307 308 310 310 312 315 315 312 308 300 315 317 299 300 294 298 300 300 304 301 301 299 297 298 293 293 294 299 300 298 293 299 296 292 291 294 296 296 293 293 288 285 287
304 303 304 303 305 307 308 310 310 311 314 310 302 304 315 312 294 294 298 298 299 299 300 300 298 300 302 297 291 296 298 302 300 297 296 297 292 288 290 290 291 289 292 293 292 290 288
303 304 303 303 303 305 307 309 309 309 313 309 303 296 304 307 304 298 295 295 295 301 300 302 300 301 299 298 298 297 297 298 299 298 299 298 294 292 289 292 294 288 289 291 291 287 288
302 303 304 303 303 304 306 308 308 308 308 309 301 295 297 295 298 299 298 298 295 294 301 301 298 299 298 294 296 294 298 295 295 296 296 296 289 294 294 296 296 293 291 290 288 290 288
301 302 303 304 304 304 305 306 307 307 306 300 292 292 295 293 295 298 297 295 295 298 298 296 295 299 299 296 298 295 297 297 294 293 292 294 288 292 289 294 294 291 293 293 290 291 291
299 301 302 303 303 304 304 304 306 305 304 296 295 299 295 290 291 291 295 296 296 299 300 301 299 298 296 299 303 304 303 300 300 295 290 290 288 287 285 290 290 283 289 291 293 293 293
298 298 300 301 302 303 304 303 305 305 305 299 296 296 290 285 288 288 290 292 296 298 296 300 301 298 302 305 300 295 291 292 295 298 295 290 287 287 285 285 279 290 298 295 293 295 295
297 298 298 299 300 302 303 303 302 305 305 302 297 294 289 285 289 290 291 290 291 291 288 290 289 289 292 297 287 286 284 285 285 285 289 294 290 286 283 283 289 291 284 289 290 291 296
296 297 297 297 299 300 302 302 302 305 305 302 300 299 291 286 287 291 290 291 286 285 284 285 286 287 290 288 285 284 281 286 281 281 283 285 292 287 281 282 281 289 288 290 293 286 292
296 296 297 297 297 299 300 302 301 303 304 300 299 300 292 286 290 289 286 287 289 287 284 284 285 286 286 285 284 284 284 286 282 281 279 282 285 283 284 283 285 288 284 289 283 287 287
295 295 296 296 297 298 299 301 302 302 304 300 297 299 295 288 289 288 289 287 286 287 285 284 285 284 284 284 284 283 282 282 283 285 283 283 281 281 284 282 281 283 282 285 287 285 287
294 295 295 295 296 297 298 300 301 302 303 300 295 296 295 291 288 290 290 290 288 289 287 284 285 285 287 286 285 283 280 280 282 280 280 281 286 285 286 284 281 283 283 285 285 287 284

GFSGBSN_sfc_thetae_036.txt.gz
Theta_e
328 327 326 325 324 324 324 322 321 321 321 323 322 322 322 321 322 322 323 324 325 326 326 324 325 324 319 311 312 320 324 326 320 315 311 309 304 303 299 301 302 299 301 302 304 302 301
329 327 327 326 325 324 323 321 323 322 320 322 322 321 321 321 321 322 323 323 325 323 324 323 323 321 316 306 318 318 315 317 315 312 309 308 305 306 302 301 299 302 302 301 302 302 301
330 329 328 327 325 324 323 323 322 323 322 320 321 321 321 321 321 322 322 322 322 321 322 323 324 318 312 311 320 315 314 312 313 312 309 310 309 305 304 301 303 301 296 299 300 300 299
328 330 328 327 326 325 323 322 322 322 321 321 321 321 320 320 321 322 322 322 320 321 322 323 324 316 308 315 320 316 314 311 313 312 311 311 310 308 304 303 301 296 295 292 299 300 298
324 325 328 328 327 325 324 323 322 322 321 320 319 319 320 320 320 320 321 321 321 323 321 321 317 313 306 317 312 316 314 310 310 310 310 310 310 304 302 295 293 295 289 293 295 300 297
321 324 324 323 327 326 324 323 323 322 320 319 319 318 319 320 320 320 320 321 322 322 319 317 314 307 307 306 311 313 313 312 308 307 306 305 302 297 296 294 288 291 290 294 293 296 296
318 319 322 323 322 325 324 323 323 322 321 319 318 318 319 319 319 320 319 318 313 310 313 307 308 308 306 306 311 309 311 308 307 304 297 301 295 292 295 297 298 296 293 292 295 296 294
316 317 318 321 322 322 322 323 323 323 322 320 319 318 319 319 320 320 319 312 311 310 303 312 311 310 308 307 301 306 309 302 301 296 300 295 292 299 301 300 297 295 292 292 296 296 293
315 316 316 317 320 320 320 321 323 323 322 320 318 318 318 319 319 318 315 313 315 313 304 304 311 309 306 305 302 302 305 303 299 297 297 294 297 300 299 295 295 293 292 292 293 294 292
312 314 315 316 316 317 319 318 319 321 321 319 319 318 318 318 314 315 311 318 320 315 295 296 304 308 304 305 300 306 306 302 299 296 297 296 300 296 295 295 295 291 296 296 294 289 285
310 311 313 315 315 315 315 317 317 319 319 319 318 318 318 319 313 310 313 318 320 314 280 300 301 309 305 302 300 299 304 300 296 295 297 294 293 293 293 295 297 293 296 293 292 290 288
308 309 310 312 314 314 315 315 317 317 319 318 318 317 317 316 315 315 318 318 316 294 282 296 298 298 297 300 298 298 298 300 300 296 294 294 296 295 295 294 295 296 293 291 290 289 281
307 308 309 309 312 313 314 314 314 316 317 318 317 317 315 316 307 318 318 312 292 285 295 292 294 297 297 296 295 295 293 291 291 288 288 292 293 295 296 291 293 293 290 283 280 279 280
306 306 307 307 310 311 312 313 314 313 316 318 317 317 315 316 316 317 314 297 282 289 290 298 297 296 294 296 295 293 291 289 293 293 291 288 286 293 295 295 291 290 291 284 279 279 281
307 305 305 305 307 310 311 312 313 312 314 316 317 315 314 315 317 314 304 286 286 290 295 294 295 292 292 295 294 292 292 292 294 294 290 291 291 296 295 296 296 290 287 294 285 277 278
305 306 305 305 305 307 309 310 312 312 312 315 313 311 310 317 318 310 299 288 291 297 298 296 290 294 290 292 290 290 290 295 295 297 298 296 289 293 291 293 294 291 294 284 284 274 275
305 305 306 305 305 306 308 308 311 311 312 315 310 304 312 317 315 303 289 289 294 300 300 295 293 292 293 293 291 289 292 295 298 297 298 296 292 286 290 288 289 288 287 289 289 285 279
305 305 305 305 304 304 305 308 309 311 312 311 307 298 313 315 300 299 294 296 298 298 302 300 298 297 296 295 292 291 291 296 300 299 293 296 294 283 286 290 292 291 290 290 283 282 285
303 304 304 305 303 304 304 306 308 310 310 308 301 301 314 312 294 294 297 296 298 297 297 298 298 298 299 296 292 293 294 299 300 298 294 296 290 285 285 287 288 287 290 292 292 287 285
301 303 304 304 304 303 303 305 307 309 309 305 301 295 301 306 304 298 293 293 294 300 298 300 299 300 297 296 298 294 294 297 298 298 299 299 292 290 286 288 291 284 287 290 290 284 284
299 300 303 303 303 304 304 305 306 308 308 303 301 296 298 293 297 298 298 295 293 293 298 300 297 297 296 292 294 294 295 293 294 297 297 296 288 291 293 294 292 288 287 288 287 288 286
299 300 300 302 303 303 304 305 305 306 307 299 293 292 295 293 295 294 298 294 294 295 297 294 295 297 298 294 295 293 296 294 291 292 291 293 287 290 288 291 291 289 292 289 289 289 290
299 299 300 299 299 303 303 304 304 304 306 298 296 297 295 293 293 291 289 292 295 298 299 300 298 297 296 298 301 302 301 299 297 291 289 289 288 286 285 288 287 285 289 291 291 291 291
298 298 299 299 298 300 302 303 304 303 305 301 297 295 290 285 289 290 291 293 292 292 291 298 300 298 301 303 304 298 294 294 297 297 294 288 288 287 286 286 279 289 294 295 293 294 295
297 297 298 298 298 298 300 301 302 304 304 300 298 295 289 284 289 289 289 290 292 293 290 288 290 289 292 299 292 291 289 289 291 294 295 294 290 285 283 284 288 289 284 288 289 290 296
296 297 297 297 298 297 299 299 301 303 303 300 298 298 290 285 285 291 290 290 288 285 285 286 286 288 290 293 289 285 284 286 285 284 283 292 294 287 283 282 280 283 283 288 292 285 291
295 296 296 297 296 297 297 299 299 301 303 299 298 299 291 285 290 289 287 287 290 287 286 285 285 287 287 285 287 286 286 288 282 282 278 283 286 285 285 284 286 282 280 286 283 283 281
295 295 295 296 296 296 297 298 299 300 302 299 296 300 294 287 289 289 290 287 286 287 285 284 285 284 284 283 284 283 283 283 283 282 280 284 283 284 285 284 281 283 281 285 284 281 283
294 294 295 295 295 296 296 298 298 299 301 301 293 298 297 290 288 291 291 292 290 289 287 285 286 285 287 285 284 284 281 280 281 279 281 281 284 285 284 283 280 281 282 283 283 283 283

GFSGBSN_sfc_thetae_039.txt.gz
Theta_e
329 328 327 326 325 324 323 322 321 321 321 321 322 322 321 321 321 322 323 324 325 324 324 324 324 323 315 305 307 317 323 324 317 310 307 304 299 297 293 296 298 295 296 299 300 299 298
329 329 328 327 326 325 324 324 323 322 321 320 320 321 321 321 321 322 322 323 323 321 322 323 324 323 310 299 315 315 313 313 311 308 304 304 301 301 297 296 295 298 298 298 300 299 298
326 327 329 328 326 325 324 323 323 323 322 321 320 320 320 320 321 321 322 322 322 320 321 323 324 318 307 305 314 310 311 309 309 307 305 306 305 300 299 296 300 298 293 295 297 298 297
324 325 326 328 327 325 324 324 323 323 322 321 320 319 319 320 320 321 321 322 322 322 323 323 323 312 302 312 313 312 309 307 308 308 307 307 306 303 300 299 297 293 291 288 295 297 296
320 321 323 324 327 326 325 324 323 322 321 320 319 319 318 319 320 320 320 321 321 322 324 323 312 307 301 315 311 312 309 306 306 306 305 308 305 299 297 291 289 289 286 288 293 296 295
318 318 319 322 323 323 325 324 324 322 321 320 319 318 318 319 319 319 320 321 320 320 320 318 313 300 303 303 308 310 308 308 304 303 302 301 298 293 292 289 284 287 287 290 290 294 293
316 317 318 319 322 322 322 324 323 323 321 320 319 318 318 318 319 320 317 314 307 304 308 299 302 302 302 304 308 306 307 305 304 300 293 296 291 289 292 292 293 291 289 288 291 294 292
314 315 316 317 318 320 320 320 323 324 323 321 319 319 319 318 319 319 314 308 307 306 299 309 308 307 305 305 299 304 306 299 298 293 295 292 289 295 296 295 294 292 290 289 292 294 292
311 312 314 315 316 316 318 319 319 321 323 321 319 318 318 318 319 316 311 310 312 308 299 302 308 307 302 303 300 300 303 299 296 294 294 290 295 298 296 294 293 291 289 289 290 291 290
311 309 311 312 314 315 315 316 318 318 318 320 319 318 318 318 313 312 308 315 316 311 288 292 300 305 302 303 297 305 304 300 296 293 294 293 298 295 294 293 293 288 293 293 291 288 284
308 309 309 310 312 314 315 315 315 316 317 318 319 318 318 318 311 308 311 315 316 308 276 293 300 306 302 300 298 298 301 298 293 294 295 292 293 292 292 293 295 291 293 291 290 287 285
306 306 307 309 310 311 313 314 314 314 315 316 318 318 318 316 314 313 315 317 313 292 279 292 297 296 296 298 295 296 297 299 298 294 293 292 294 294 294 292 294 294 292 291 289 287 280
306 306 306 307 309 309 311 312 313 314 314 314 317 317 316 317 308 316 318 311 288 283 291 290 292 295 294 294 293 293 292 291 290 287 286 290 291 293 294 290 292 292 289 281 279 278 280
307 307 307 305 306 307 308 311 312 313 313 313 315 317 315 316 316 318 313 293 281 287 288 295 294 294 291 294 292 292 290 288 292 290 287 287 283 291 294 292 290 288 289 283 277 277 279
307 306 307 307 305 305 306 308 311 311 312 312 313 315 314 315 316 316 300 284 287 289 293 292 293 289 289 292 291 290 288 288 291 292 289 286 286 292 293 295 295 288 286 292 284 273 276
305 306 306 307 307 305 305 307 309 310 311 312 309 310 310 317 316 311 297 287 289 297 296 294 289 291 287 289 289 288 288 292 293 295 295 293 287 290 289 294 292 291 292 285 283 274 273
304 304 305 306 306 306 305 305 307 309 310 311 306 302 312 316 314 302 291 289 292 297 298 294 291 290 290 289 289 287 289 291 295 293 296 294 292 285 288 287 288 288 286 289 289 284 278
302 303 302 304 305 305 305 304 305 307 309 307 301 296 312 315 299 299 294 295 297 295 298 297 297 296 292 293 290 288 288 293 297 295 291 295 292 280 285 289 291 291 289 288 283 282 281
301 301 302 302 303 305 305 303 304 305 308 303 297 299 312 311 293 294 297 295 297 295 296 296 296 297 298 294 290 292 292 296 297 295 292 295 290 282 283 286 287 287 289 292 291 285 283
300 301 301 302 301 304 305 305 305 305 307 304 296 292 299 304 303 297 295 293 292 297 297 298 297 299 296 294 297 293 291 295 297 297 299 299 291 290 286 287 288 285 287 290 291 283 284
299 300 300 301 301 299 304 304 304 305 306 302 296 292 296 291 292 295 297 296 293 292 297 299 295 295 295 292 293 292 295 293 295 297 297 297 288 289 292 291 290 288 287 288 287 289 285
298 299 300 300 300 299 301 302 304 304 306 298 292 292 295 293 291 293 293 289 294 294 295 294 293 296 296 293 295 292 295 294 292 292 294 294 288 290 288 289 290 288 289 289 289 289 289
298 298 298 299 300 299 300 300 303 304 304 296 296 297 294 291 291 291 291 290 292 297 298 298 297 295 295 297 300 301 300 299 296 292 290 290 288 286 285 289 287 284 289 291 290 291 290
298 298 298 298 299 299 299 298 299 303 303 299 295 295 290 285 288 289 291 292 291 292 291 293 295 296 300 300 302 302 296 297 298 294 295 289 289 287 285 286 279 289 293 295 293 294 293
297 297 297 297 298 299 299 298 298 301 303 298 298 294 289 284 288 288 290 291 292 291 292 293 293 295 293 296 289 288 288 288 292 294 291 295 290 285 283 284 287 290 287 289 288 290 296
297 297 297 296 297 298 298 299 298 298 301 299 297 298 291 286 285 289 285 288 288 287 285 287 286 288 292 290 288 285 284 286 286 286 291 291 293 287 283 282 280 289 285 288 293 287 295
297 296 296 296 296 297 298 298 298 298 299 298 295 299 292 285 288 287 287 287 291 288 286 285 284 286 287 287 284 285 285 288 284 283 280 287 288 284 285 284 286 283 281 289 285 285 278
296 296 295 295 295 296 297 297 298 299 299 297 295 299 294 287 289 288 290 287 286 287 285 285 285 285 284 284 285 285 283 285 284 283 283 285 286 286 286 284 282 283 284 288 285 280 281
296 295 295 295 295 295 296 297 297 298 299 298 292 298 299 290 286 291 292 291 293 293 288 285 285 283 286 285 285 284 281 281 282 280 283 283 284 286 287 285 281 282 282 283 283 282 282

GFSGBSN_sfc_thetae_042.txt.gz
Theta_e
329 328 328 327 326 325 324 323 322 320 320 320 321 321 320 320 320 321 322 323 323 321 321 323 325 324 314 302 305 314 323 321 314 308 304 301 297 295 292 294 296 292 294 297 299 298 296
326 327 328 327 326 325 324 324 323 322 321 320 319 320 320 320 320 321 321 322 322 322 321 323 325 323 308 297 313 313 312 311 308 305 302 302 299 299 296 295 293 296 296 296 298 297 297
324 325 325 329 327 326 324 324 324 323 322 321 319 319 319 320 320 320 321 321 322 322 322 323 324 317 305 303 312 308 309 306 307 305 302 303 303 299 298 295 298 296 291 293 295 296 295
321 321 322 324 326 326 325 324 324 323 322 321 320 319 319 319 320 320 320 321 321 322 322 324 325 310 300 311 311 308 307 305 306 306 305 304 304 301 298 297 296 291 290 287 293 295 295
319 318 319 321 323 323 325 325 324 323 322 320 319 318 318 318 319 319 320 320 320 321 323 324 310 305 299 314 310 310 306 304 304 304 304 307 303 297 295 290 288 288 285 286 291 295 293
316 317 318 318 320 322 322 323 324 323 322 320 319 318 318 318 317 319 319 320 320 319 318 318 312 298 301 301 307 308 306 306 302 301 299 299 295 292 290 288 284 286 285 287 288 292 291
314 314 316 317 317 318 321 321 321 324 322 320 319 319 318 318 318 319 316 311 302 300 305 295 298 296 301 303 307 305 306 304 302 298 292 294 290 288 291 291 291 289 287 287 289 294 291
312 312 313 315 316 316 316 318 320 320 323 321 320 319 319 318 318 319 313 305 304 305 297 306 306 305 303 304 299 303 305 299 297 292 293 291 288 294 294 293 291 289 287 287 291 293 291
310 311 310 311 313 315 315 315 316 318 319 321 320 319 319 318 319 315 309 309 310 307 296 299 305 305 302 303 299 300 302 298 294 292 292 289 294 296 295 292 291 289 288 287 289 289 289
308 307 309 310 311 312 314 314 315 315 316 317 319 319 318 318 312 311 307 314 314 309 285 289 298 303 301 302 297 304 303 299 294 292 293 291 296 294 292 291 292 288 293 292 290 287 283
308 306 306 307 309 310 311 313 315 315 314 314 317 319 318 317 312 308 311 315 314 303 275 291 298 305 300 298 297 297 300 297 293 293 293 291 292 292 291 292 294 291 293 290 288 285 284
306 306 306 306 307 309 309 311 313 314 314 313 313 317 318 315 314 313 315 316 313 289 278 289 297 295 295 296 294 296 297 298 297 293 292 291 293 294 294 293 294 293 291 289 287 285 280
307 308 307 306 305 306 307 308 310 312 313 313 313 313 316 317 309 317 318 306 286 281 292 288 291 294 294 292 291 293 291 291 290 287 287 289 290 292 293 291 292 291 287 280 279 277 280
307 307 307 306 308 305 305 306 308 310 311 312 312 312 314 317 317 317 312 294 280 288 288 294 293 292 290 293 292 291 289 289 292 289 286 286 284 291 293 292 290 289 287 281 276 276 279
305 305 306 307 306 307 306 305 306 308 310 310 311 308 312 315 316 316 301 284 288 288 292 291 292 288 288 291 290 287 287 288 291 291 288 284 285 290 290 293 295 287 286 291 284 271 276
303 304 304 306 306 306 306 306 305 307 308 309 303 301 306 317 316 311 295 289 290 295 295 295 290 292 287 288 288 287 286 290 291 293 294 291 284 288 289 292 290 289 292 283 282 274 273
302 303 303 303 303 305 306 306 306 306 307 309 303 296 305 317 313 303 289 288 292 295 296 293 292 292 291 289 289 286 288 291 294 292 296 293 291 284 288 287 287 287 286 287 287 282 277
301 302 301 302 303 303 304 306 305 305 306 305 299 291 307 314 297 298 294 294 295 293 297 295 295 294 291 292 290 288 288 291 295 294 290 293 292 282 284 288 288 288 287 288 282 280 281
300 301 301 301 301 303 303 304 305 305 305 298 294 293 306 310 291 292 297 297 298 294 294 294 294 295 295 292 290 290 290 294 295 294 291 294 288 280 282 285 286 285 288 292 288 283 284
299 299 300 301 301 301 302 302 304 305 305 299 293 286 293 301 299 295 292 294 294 299 296 296 296 297 295 294 295 290 290 294 295 296 298 298 291 287 284 286 287 284 286 288 290 285 285
299 298 299 300 301 301 302 301 303 304 305 297 292 289 289 288 290 294 293 294 292 292 297 297 294 295 293 291 292 292 295 292 293 296 296 296 289 290 292 290 288 286 288 288 287 289 285
299 298 299 298 299 300 301 302 301 301 304 293 288 287 290 289 291 292 292 291 287 294 295 293 292 294 295 292 294 292 294 294 293 293 294 294 289 291 288 291 288 287 287 288 289 290 290
299 299 299 299 299 299 300 301 301 301 300 292 292 296 293 289 288 287 288 291 291 293 293 297 296 294 294 295 298 300 298 299 297 295 292 290 291 288 285 289 286 284 289 288 288 291 290
299 298 298 299 298 298 299 300 300 300 299 295 293 292 288 284 287 287 289 292 292 292 290 295 297 294 299 300 300 300 297 297 296 295 297 289 290 289 286 286 280 289 294 296 293 293 292
298 298 298 298 298 298 298 299 300 300 299 295 296 293 289 283 285 285 287 289 290 291 290 291 294 296 298 296 288 289 289 287 291 294 293 296 291 286 284 284 286 289 287 289 289 291 297
298 298 298 298 297 297 297 298 299 300 299 295 293 298 291 283 284 288 287 288 285 286 286 287 286 288 294 290 285 283 284 286 286 287 294 294 294 288 283 282 280 289 288 293 292 287 295
297 297 297 297 297 297 297 297 298 299 299 295 292 297 292 284 288 288 284 284 288 287 283 285 285 286 287 287 284 284 283 287 284 284 283 287 288 285 285 284 285 285 282 292 285 286 280
296 297 297 297 297 296 296 296 297 298 299 296 292 296 292 285 288 290 291 287 287 285 284 281 285 285 284 284 285 285 284 286 285 286 285 286 285 285 285 283 281 282 284 288 285 281 281
296 296 297 297 296 296 296 296 296 297 298 297 290 295 297 288 286 290 291 291 291 290 290 286 286 284 289 286 285 283 283 283 286 282 283 284 289 287 288 286 281 282 281 283 282 279 281

GFSGBSN_sfc_thetae_045.txt.gz
Theta_e
327 327 327 327 326 325 324 323 322 321 319 319 321 320 320 320 320 321 321 322 322 322 322 323 325 323 312 300 302 312 322 320 311 306 302 299 296 294 291 293 294 290 292 295 297 296 295
325 326 326 327 327 325 324 324 323 323 321 319 320 319 320 320 320 320 321 321 322 322 322 323 325 322 307 294 311 311 310 309 306 303 300 300 297 297 295 293 292 294 295 294 296 295 295
321 322 323 324 326 326 324 324 324 324 322 321 319 318 318 320 320 320 320 321 321 321 322 323 325 315 302 300 310 307 307 305 305 304 301 301 301 297 296 293 296 294 290 292 292 295 294
319 319 320 322 323 323 325 324 324 324 322 321 320 319 318 318 319 319 320 320 320 321 321 323 324 307 297 309 310 307 305 303 305 305 304 303 302 300 297 296 294 290 289 287 291 294 293
316 318 319 319 321 322 322 324 325 324 322 320 319 318 318 318 318 319 319 320 319 320 322 323 308 303 295 312 308 309 304 302 303 302 303 306 301 295 294 290 287 287 284 285 290 294 292
314 315 316 318 318 318 321 321 321 323 322 321 319 318 318 318 317 317 319 320 319 319 317 315 310 294 299 299 305 306 304 304 301 299 298 298 294 291 288 288 283 285 284 285 286 291 290
312 312 313 314 316 316 316 318 320 321 321 321 320 319 318 318 318 318 315 308 298 296 304 294 295 293 299 302 305 303 304 302 300 297 291 293 289 287 290 290 289 288 286 286 288 292 290
311 311 310 311 313 315 315 315 316 318 319 319 320 320 319 318 318 319 312 302 298 302 294 303 303 303 303 303 298 301 304 298 295 291 292 290 287 292 292 291 289 287 286 286 289 291 290
308 308 308 310 310 311 313 314 315 315 315 318 318 320 319 318 318 315 309 306 310 307 293 296 303 302 302 302 298 299 301 297 293 291 291 289 292 294 293 290 289 288 286 286 288 289 288
306 307 305 307 308 309 311 312 314 314 314 314 317 318 319 318 311 311 306 312 313 306 285 288 295 301 300 301 296 302 302 298 293 292 291 291 294 293 291 290 291 286 291 290 288 286 283
306 306 306 305 306 308 309 310 312 314 314 313 313 315 319 317 311 308 310 315 313 300 282 292 296 303 299 297 295 296 299 297 292 292 292 290 291 291 290 291 293 289 291 289 287 285 282
307 307 307 305 305 305 307 308 309 311 313 312 312 313 315 315 314 314 316 315 310 290 280 287 296 294 294 294 293 294 296 297 296 292 291 290 292 293 293 292 293 292 290 288 286 284 279
306 307 307 308 307 306 305 305 307 308 310 312 312 312 310 317 309 316 317 306 287 282 292 288 291 293 292 290 290 291 291 290 289 286 286 288 289 291 293 290 291 290 287 280 278 277 279
304 305 306 307 307 306 306 304 304 306 307 310 311 310 308 314 317 317 310 294 281 288 288 292 291 292 290 292 290 290 289 287 291 288 285 285 282 290 292 292 290 288 287 281 275 275 278
303 304 305 305 306 307 307 306 305 305 307 308 309 303 307 311 317 316 301 285 287 288 291 291 291 287 287 290 290 288 287 287 291 291 287 284 284 289 290 291 294 287 284 289 283 271 275
301 303 303 304 304 305 306 306 306 306 306 307 301 300 300 313 316 310 295 291 293 294 293 294 290 292 287 288 289 286 286 289 290 293 293 290 283 287 288 291 290 289 291 283 281 273 271
300 301 302 303 303 303 304 306 306 306 305 306 299 296 301 313 313 302 291 289 292 294 296 292 292 291 289 288 289 285 288 290 291 290 295 292 288 283 287 286 286 286 285 285 286 282 277
300 300 300 302 302 302 304 303 305 305 305 301 293 289 301 313 294 296 291 296 295 293 297 294 294 294 290 291 289 288 288 290 294 293 289 292 290 281 284 287 288 286 286 288 281 279 280
300 301 301 301 301 301 301 303 303 305 305 294 287 289 300 307 287 288 293 294 297 294 295 293 293 293 293 293 290 291 289 293 294 293 291 294 288 276 281 285 285 285 287 290 288 283 283
300 300 299 300 300 301 301 302 302 303 305 297 287 282 289 293 295 291 289 289 291 299 296 296 294 296 294 292 295 289 289 292 294 294 297 297 290 285 284 284 286 283 285 288 288 283 284
301 300 299 299 299 300 301 301 302 302 304 297 288 283 286 285 286 289 291 292 289 290 298 297 294 294 293 290 291 290 291 291 292 295 295 295 288 289 291 291 287 285 285 287 287 289 285
300 300 300 300 299 299 300 301 302 301 303 294 286 282 286 286 287 289 287 288 288 290 292 293 292 294 294 292 293 291 293 292 292 292 292 294 287 289 287 290 290 286 286 287 288 290 290
300 300 300 300 299 299 299 299 300 301 300 291 292 289 288 284 284 284 286 288 287 291 294 295 295 294 293 295 298 299 298 299 297 295 291 291 289 286 284 288 288 283 288 289 288 290 290
299 300 300 300 299 299 299 299 300 300 300 293 291 290 284 279 284 283 286 287 287 289 289 293 295 292 295 301 300 298 296 295 295 296 297 289 289 288 285 286 279 289 295 294 292 292 292
299 299 299 299 299 299 299 299 299 300 300 294 294 290 285 280 282 282 285 286 287 291 289 289 291 295 298 295 289 288 288 289 290 293 295 297 291 287 284 284 288 288 289 288 288 290 296
299 299 298 298 298 298 298 298 299 299 299 296 293 294 287 282 281 285 283 285 284 285 285 287 286 288 294 288 284 282 283 286 285 287 294 294 295 289 283 282 280 289 291 294 292 287 296
298 298 298 298 298 298 298 298 298 298 299 295 292 294 288 283 286 285 284 283 286 283 283 284 286 287 288 285 282 283 283 286 282 284 285 287 288 285 286 284 285 286 283 291 285 286 281
297 297 297 297 297 298 298 298 298 297 297 296 293 295 288 284 285 287 289 284 286 286 284 281 284 285 285 284 283 284 284 285 285 286 285 286 285 285 286 283 282 283 286 287 285 281 281
297 296 296 296 297 297 298 298 297 297 297 297 290 295 294 285 286 290 291 291 292 291 287 283 282 279 287 285 285 285 284 284 286 281 283 285 288 286 286 286 284 283 283 283 282 279 280

GFSGBSN_sfc_thetae_048.txt.gz
Theta_e
326 326 326 326 325 324 323 322 321 320 320 319 320 320 319 319 319 320 321 321 322 322 322 323 325 325 310 298 301 311 320 318 308 304 300 297 294 293 290 292 292 291 291 294 295 294 295
323 324 325 327 326 325 324 324 323 322 321 320 319 319 319 319 319 320 320 320 321 321 322 322 324 323 305 292 310 310 307 306 305 301 299 299 296 296 293 291 290 293 293 293 294 294 293
320 321 322 324 324 326 325 324 324 323 323 321 319 319 318 318 319 319 319 320 320 320 321 322 324 314 301 297 309 305 306 303 303 302 299 300 299 296 294 292 294 293 290 291 290 293 292
318 320 320 321 323 322 324 325 324 323 323 321 320 319 318 318 318 319 319 319 320 320 321 322 323 305 293 307 309 306 304 302 304 304 302 302 301 299 295 294 293 289 288 286 289 293 292
315 317 318 319 319 320 322 322 324 324 323 321 320 319 318 318 318 317 319 319 319 320 321 322 307 301 292 311 306 307 303 301 301 301 302 304 300 293 293 289 287 287 283 284 289 293 291
313 313 314 316 317 317 317 320 321 321 322 321 320 319 318 318 318 317 318 319 319 318 315 312 308 292 296 297 304 304 302 303 299 297 297 297 293 290 287 287 282 284 283 284 285 289 288
312 311 311 312 314 316 316 316 317 319 320 319 321 319 319 318 318 318 314 304 295 293 302 292 293 291 297 302 304 302 302 300 298 296 290 291 288 287 289 288 288 286 284 285 286 290 288
310 309 310 311 311 312 314 315 315 315 316 318 318 321 320 319 318 318 310 299 295 300 293 300 300 300 302 303 298 300 302 297 293 290 291 289 286 291 291 290 288 286 285 285 288 289 288
308 308 307 307 308 310 311 313 314 315 314 314 316 318 320 319 318 314 307 305 310 306 292 294 301 300 300 301 298 299 301 296 292 290 290 287 290 293 292 288 288 287 285 285 287 288 287
305 305 307 305 307 308 309 311 312 313 313 313 313 316 318 318 312 310 306 311 311 304 287 290 293 299 299 300 295 300 301 297 291 291 290 289 292 292 289 288 290 284 289 288 287 285 282
307 307 306 306 305 306 307 309 309 311 313 312 312 313 316 317 311 308 311 313 312 300 283 293 294 302 298 294 294 295 298 296 291 291 291 288 290 289 288 290 291 288 290 288 287 284 281
306 307 308 307 306 305 305 306 307 309 310 312 312 312 312 315 314 314 316 316 310 291 283 288 295 293 293 293 292 294 295 296 295 291 290 288 292 292 292 291 291 292 289 287 285 283 279
304 305 306 307 308 308 306 304 304 306 307 309 311 311 308 308 309 316 316 306 288 283 294 289 290 292 291 289 290 291 290 289 288 285 285 287 288 290 291 289 290 288 287 280 277 276 278
302 304 304 306 306 307 306 305 304 304 305 307 308 309 306 309 317 316 309 294 282 286 290 293 291 290 289 290 289 289 288 287 290 287 283 283 281 289 291 291 288 287 287 280 274 274 277
300 301 303 304 305 306 306 307 306 306 305 306 308 301 303 308 313 315 301 287 288 289 294 292 292 288 287 289 289 287 286 286 290 289 285 283 283 288 289 290 293 286 284 288 283 270 275
301 300 302 303 304 304 305 306 306 306 305 306 296 296 298 309 313 309 296 290 291 295 294 294 289 292 286 287 288 286 285 289 290 292 291 288 283 286 288 290 289 288 290 283 281 274 271
301 300 300 302 303 304 303 303 305 306 306 305 293 290 298 307 311 300 289 290 292 295 297 293 291 289 289 287 288 285 287 288 290 290 295 291 288 283 286 286 285 286 285 284 285 281 276
301 300 300 301 301 302 302 304 304 305 305 299 290 285 298 310 292 293 289 292 295 292 296 296 294 293 290 289 288 286 287 289 292 292 288 291 288 281 284 286 286 285 285 286 280 278 279
302 301 302 301 301 302 301 301 303 304 304 293 286 286 296 303 285 286 290 291 293 294 294 294 293 294 294 293 289 289 288 292 293 293 291 292 288 278 282 284 284 284 286 288 286 283 281
302 301 301 301 301 301 301 301 302 303 304 298 287 280 286 294 294 289 287 287 288 294 294 296 295 295 291 292 295 290 289 291 293 293 297 297 290 286 283 283 285 282 284 287 289 283 284
301 301 301 300 300 300 300 301 302 303 303 297 289 282 284 282 282 284 289 290 287 286 294 296 293 294 293 290 290 290 291 290 291 294 294 295 287 287 290 288 285 285 284 286 287 288 283
300 300 301 301 301 300 299 300 301 302 302 294 286 282 284 282 284 286 286 282 285 289 290 289 291 293 293 290 291 288 292 290 290 290 292 294 287 289 286 289 288 286 285 287 287 289 289
301 301 301 301 301 300 300 299 300 301 300 288 292 292 288 283 281 280 281 284 285 287 289 293 292 291 292 294 297 298 297 297 296 293 289 291 288 286 284 288 287 284 287 289 289 291 290
301 300 300 300 301 300 300 300 299 300 300 290 290 291 284 277 282 281 282 283 283 286 286 289 292 292 294 297 297 297 296 295 295 295 296 289 288 287 285 284 278 289 292 293 291 292 293
300 300 300 299 300 300 300 300 300 299 300 293 294 290 285 277 281 281 282 283 283 284 285 289 290 293 296 294 288 285 285 287 289 292 293 295 291 286 284 283 287 288 288 288 287 289 294
300 299 299 299 299 300 300 300 300 299 300 292 294 294 288 280 278 283 279 281 279 279 282 287 287 288 293 287 285 281 279 284 284 286 292 294 295 288 285 281 279 289 293 292 291 285 295
299 299 299 299 299 299 299 299 299 299 299 293 292 295 288 281 282 283 278 281 283 280 281 273 283 286 288 284 281 280 282 286 282 283 283 286 287 285 285 283 283 286 283 291 284 286 281
298 298 298 298 299 299 299 299 299 299 299 295 291 294 289 283 281 285 287 285 286 284 280 279 282 284 285 282 282 282 283 285 283 285 285 286 284 284 286 283 281 285 285 287 287 281 282
298 298 298 298 299 298 298 298 298 298 298 297 288 292 293 286 284 288 288 289 290 289 286 284 282 276 286 283 284 285 283 284 284 281 286 283 286 285 286 286 290 285 288 286 284 282 282

GFSGBSN_sfc_thetae_051.txt.gz
Theta_e
326 327 326 325 324 323 322 321 321 320 320 319 319 319 319 319 319 320 320 321 321 321 322 323 324 324 310 298 300 311 321 317 307 304 300 298 295 294 292 294 294 292 293 295 296 295 294
322 323 325 326 326 325 324 323 322 321 321 320 319 319 319 319 319 320 320 320 321 321 321 322 324 322 302 291 309 308 306 305 304 302 299 299 296 296 294 292 292 294 295 294 295 295 295
320 322 322 323 323 325 324 324 324 323 322 321 319 319 319 318 318 319 320 320 320 320 320 322 323 313 298 296 309 305 306 303 303 302 300 300 300 297 296 294 295 293 291 293 292 294 294
318 318 321 321 322 322 323 324 324 323 323 321 320 319 318 318 318 318 318 319 320 320 321 322 323 304 292 306 309 306 304 302 304 303 302 301 301 299 296 295 293 290 290 287 291 293 294
314 315 316 319 319 319 320 321 323 324 323 321 320 319 319 318 318 318 318 319 319 320 321 321 305 300 291 311 306 307 303 301 301 301 301 303 299 294 294 290 288 287 284 285 289 293 292
312 312 312 314 316 317 317 318 319 320 320 322 320 319 319 318 318 317 318 319 318 317 314 309 306 292 295 297 304 304 302 302 299 297 297 297 293 290 288 288 282 284 285 285 286 290 290
311 311 311 311 312 314 315 316 316 316 318 319 320 320 319 319 318 318 313 303 293 291 300 292 291 291 296 302 304 301 302 300 297 296 290 292 289 287 289 289 287 287 285 285 287 291 290
309 309 308 309 310 311 313 314 315 315 314 316 318 319 320 319 318 318 310 299 296 298 292 298 297 298 301 303 298 300 302 296 293 290 290 289 287 290 291 289 289 287 285 286 288 289 290
306 306 306 307 307 308 310 312 314 314 313 313 315 317 319 319 318 313 307 304 310 304 290 293 300 298 298 301 297 298 300 295 291 289 289 287 289 291 291 288 288 286 285 285 287 288 288
307 306 306 306 305 306 308 310 310 312 313 312 312 314 318 318 312 311 308 310 312 306 287 290 292 298 299 300 293 299 300 297 291 290 288 288 291 290 288 287 289 284 289 288 286 286 282
305 306 306 307 306 305 305 307 308 309 311 312 311 312 316 318 310 309 311 315 311 304 283 293 292 300 297 293 293 295 298 295 291 291 290 288 289 289 287 289 290 287 289 288 287 285 283
303 305 306 307 308 307 305 305 306 307 308 310 310 311 311 314 313 313 316 315 309 292 283 289 294 292 292 292 292 293 295 296 294 291 289 288 290 291 291 290 290 290 288 287 285 284 279
303 303 304 305 307 308 306 304 304 304 306 308 308 310 308 309 309 316 314 307 289 283 295 288 289 291 290 288 289 290 290 289 287 284 284 286 288 289 291 288 289 288 286 279 277 276 279
302 302 303 304 305 306 307 307 305 304 303 305 306 308 304 307 310 315 308 295 283 287 289 292 291 290 288 290 288 288 288 286 289 285 282 283 280 288 291 290 288 287 286 280 274 274 277
301 302 301 302 304 305 306 307 307 306 305 305 305 298 300 305 310 313 300 286 288 288 292 292 292 288 286 288 288 287 286 286 289 288 284 281 282 287 288 289 292 286 284 287 282 270 276
301 301 300 301 303 304 304 305 307 307 306 304 295 294 296 305 309 308 296 289 292 295 293 293 290 292 286 288 287 286 285 288 289 291 290 286 281 285 287 290 289 287 290 283 281 274 271
301 302 301 300 301 303 304 304 304 306 306 304 291 287 295 305 309 298 289 290 291 295 296 293 290 290 289 288 288 285 287 288 290 289 294 290 287 283 286 285 285 286 285 284 284 281 275
303 302 302 300 301 302 302 304 304 304 305 297 289 281 296 306 292 293 288 289 296 294 295 295 294 294 291 290 289 287 286 288 291 291 289 291 288 280 283 285 286 285 285 285 281 278 279
303 302 302 301 301 301 300 303 302 304 304 291 284 284 294 301 282 284 287 289 291 292 294 294 293 293 295 291 288 289 289 292 292 292 290 292 287 277 281 284 283 283 285 286 285 283 280
303 303 303 302 302 302 301 302 302 303 304 296 288 279 284 291 290 286 284 285 286 291 291 294 293 294 293 291 294 289 288 290 292 293 297 296 290 285 283 283 285 282 283 287 288 282 285
303 302 303 303 302 302 302 301 302 302 303 297 289 283 283 277 281 285 288 288 285 284 291 292 290 292 292 289 290 290 292 289 291 294 294 294 287 289 289 289 285 285 284 285 286 288 284
302 302 302 302 302 301 301 301 302 302 302 293 286 284 285 281 283 281 282 281 284 287 289 288 287 290 290 289 291 288 290 291 291 289 291 292 287 288 286 289 289 285 285 286 287 288 288
302 302 302 302 302 302 301 301 301 302 300 289 292 292 288 283 280 279 279 282 282 284 286 288 287 286 286 290 295 296 296 295 295 293 291 290 287 286 284 287 285 283 287 288 289 289 288
301 301 302 301 302 301 301 301 301 302 300 292 290 290 284 277 281 280 281 282 281 282 283 286 289 287 292 297 297 295 294 294 294 293 296 289 288 287 284 284 278 288 292 293 291 292 293
301 301 301 302 301 301 301 301 301 301 301 294 293 288 285 274 281 281 280 281 282 282 281 283 285 289 293 291 286 284 283 283 285 290 292 294 290 284 282 283 286 284 287 288 287 289 294
300 301 300 302 302 301 301 301 301 301 301 292 292 294 288 278 277 281 279 280 276 270 271 275 284 288 291 287 284 279 277 278 277 283 289 291 293 286 284 281 278 286 292 292 290 285 295
300 300 301 301 301 301 301 301 301 301 301 292 292 295 289 281 279 281 276 278 280 276 273 270 279 285 288 283 279 278 274 283 280 278 279 284 285 283 283 282 285 287 283 290 283 285 282
298 301 300 301 301 300 300 300 301 301 301 296 291 294 288 283 280 285 284 279 279 278 275 273 276 277 276 276 279 278 278 275 280 280 281 282 282 282 284 281 279 284 285 286 288 283 282
294 300 300 299 300 299 299 300 300 300 300 298 289 293 293 285 278 288 287 288 287 286 282 283 277 277 282 273 275 276 279 282 277 276 285 282 285 284 286 285 288 290 290 293 288 285 284

GFSGBSN_sfc_thetae_057.txt.gz
Theta_e
323 325 326 325 323 322 322 321 320 321 321 321 320 319 319 318 319 319 320 320 320 321 321 322 323 324 320 308 308 316 321 321 315 313 310 308 305 305 301 303 303 301 302 303 305 304 304
322 323 324 324 324 324 323 322 321 321 321 320 319 319 319 318 319 319 319 320 320 320 320 321 324 323 312 301 316 315 313 312 312 311 309 308 306 307 304 303 302 303 303 303 304 304 304
318 319 321 321 322 324 323 323 322 322 321 321 319 319 318 317 317 317 318 318 319 320 320 321 324 317 307 306 317 314 312 312 312 311 308 309 309 306 306 302 305 303 299 302 302 303 302
315 316 317 319 319 320 322 324 323 323 322 321 320 319 319 318 318 318 318 318 318 319 320 321 323 314 302 313 319 311 313 311 312 312 311 311 311 308 306 306 303 300 301 297 302 302 303
313 314 314 315 316 318 318 320 322 323 322 321 320 319 319 318 318 318 318 319 319 319 320 321 312 309 300 317 312 313 311 309 310 310 309 309 310 306 304 301 298 300 294 296 299 302 301
312 311 311 312 313 314 317 317 318 318 320 321 320 319 319 319 318 318 319 319 319 319 316 313 310 302 303 303 312 311 311 310 307 307 306 305 304 301 301 299 291 295 295 296 296 300 299
308 308 309 309 310 312 313 316 315 315 315 316 319 320 320 319 318 318 320 311 305 302 306 301 300 299 303 309 312 309 309 307 307 305 299 302 297 295 298 300 300 297 297 295 298 300 298
308 308 306 307 307 309 311 312 314 314 313 313 315 317 321 319 319 318 319 305 305 309 300 304 302 302 306 310 304 307 309 304 303 299 301 298 295 300 301 300 298 297 295 295 299 299 296
306 307 308 306 306 306 307 310 311 313 312 312 312 313 316 320 318 318 318 310 315 312 299 301 303 302 302 307 302 304 306 305 301 299 298 295 297 300 298 296 295 296 295 295 295 297 299
303 304 305 306 307 305 305 306 309 310 311 311 311 311 316 318 315 319 316 318 317 314 300 300 298 303 303 306 299 306 308 304 300 297 298 297 299 297 296 295 297 292 299 297 295 294 290
302 302 303 305 306 307 306 304 307 307 308 309 310 309 310 314 317 315 317 319 318 313 286 300 298 306 304 300 300 301 305 303 298 298 298 295 296 295 294 295 298 295 298 296 295 294 293
303 301 302 303 305 306 307 305 304 305 306 307 308 308 309 315 317 317 320 319 315 296 286 296 299 298 297 298 298 300 301 304 303 299 298 297 299 299 298 297 298 298 297 296 296 294 287
301 301 302 302 303 305 306 307 304 303 304 304 306 307 307 308 310 318 318 311 294 285 299 296 294 297 297 295 295 298 296 295 293 290 291 295 295 298 299 295 297 297 294 287 286 286 285
303 302 301 303 302 302 304 306 306 305 303 303 305 305 308 305 312 316 311 298 285 292 296 298 296 296 294 296 295 295 295 293 297 295 292 290 287 295 298 297 294 294 294 288 282 284 287
303 304 302 302 303 301 302 304 305 307 305 303 303 304 303 308 308 312 302 287 289 293 298 296 295 292 293 295 295 294 294 294 297 297 290 290 289 297 297 298 298 293 290 297 290 286 285
303 304 302 301 302 301 301 302 304 306 305 303 300 299 298 308 310 308 296 290 294 299 300 299 293 296 292 293 291 292 293 297 296 298 299 294 288 293 294 296 297 295 297 288 289 284 282
305 303 304 302 302 302 300 302 304 304 305 303 299 293 299 307 311 300 289 292 295 300 301 297 295 294 295 293 292 291 293 296 297 296 299 296 292 289 292 291 291 291 290 291 291 289 284
305 304 304 304 302 303 302 301 304 304 305 300 296 287 302 308 295 296 291 294 297 297 300 298 299 297 295 295 293 294 293 296 298 297 293 296 293 288 289 295 295 295 293 292 287 285 288
304 305 305 304 304 303 302 302 303 304 305 300 291 292 302 304 286 290 293 294 296 296 296 296 295 298 298 295 291 294 296 301 299 298 295 295 289 286 287 291 292 290 293 293 293 291 288
304 304 305 304 304 303 303 302 302 303 305 300 292 285 292 295 296 290 289 289 290 296 296 298 296 298 295 293 296 293 294 298 299 300 298 297 290 288 286 290 293 289 291 293 291 287 287
303 304 304 304 304 304 304 304 304 303 304 300 292 287 291 285 287 290 290 288 287 287 294 295 293 295 294 290 292 292 295 296 296 297 296 295 286 290 292 294 293 292 292 292 290 291 287
301 302 303 303 304 304 304 303 304 304 304 294 289 287 290 289 290 288 288 286 285 288 289 288 289 291 294 290 291 289 292 293 293 297 295 295 287 291 287 293 294 290 293 293 293 292 292
299 300 302 302 303 304 304 305 304 304 303 293 293 295 292 287 287 287 286 286 287 289 290 291 290 290 289 291 293 294 294 294 293 291 292 290 287 285 283 289 288 284 289 293 294 296 295
298 298 300 301 302 303 303 304 304 304 302 298 295 292 288 283 286 286 286 288 287 289 288 291 291 289 292 294 293 292 292 292 292 292 294 289 288 286 283 285 278 290 296 296 294 296 297
296 297 297 299 300 301 303 304 304 304 303 298 299 293 288 283 287 286 286 286 288 289 288 288 289 292 293 289 284 282 284 283 284 289 291 293 289 283 280 280 285 288 292 292 292 292 298
295 295 296 297 298 299 300 303 304 304 303 300 298 299 293 284 284 288 285 286 284 285 283 284 287 291 292 287 283 276 275 281 281 284 290 290 291 285 282 278 276 287 294 297 296 285 297
294 295 295 295 296 298 298 299 303 303 303 299 296 299 292 284 288 288 285 285 288 286 283 283 284 283 288 283 279 277 277 284 277 277 280 283 283 280 280 279 283 291 293 296 283 287 291
294 294 294 294 295 296 298 298 300 303 303 299 294 299 293 286 288 290 290 287 287 287 282 283 284 283 283 280 279 279 278 281 280 281 282 282 282 281 282 279 276 292 292 288 290 292 292
293 294 294 293 294 295 297 298 297 302 302 302 291 297 298 290 288 292 292 293 292 291 288 285 285 285 286 282 283 284 279 282 281 276 285 279 284 282 285 285 291 294 293 295 294 291 291

GFSGBSN_sfc_thetae_060.txt.gz
Theta_e
324 324 324 324 323 322 321 320 320 320 320 320 320 319 319 318 319 319 319 320 320 320 321 321 323 324 320 310 309 315 321 319 315 312 309 306 303 302 298 299 300 296 298 300 302 301 300
321 323 323 324 324 323 322 321 320 320 321 321 320 319 319 318 319 319 319 319 320 320 321 321 323 323 314 301 317 314 312 312 312 309 306 306 304 304 300 299 298 300 300 299 301 301 300
317 318 321 322 322 323 322 322 322 321 321 320 319 319 319 318 317 318 318 319 319 319 320 321 323 317 307 306 317 314 312 311 311 310 307 308 307 304 303 299 302 300 295 297 298 300 298
314 315 316 318 319 319 322 323 323 322 322 321 320 319 319 318 318 318 319 319 319 319 320 321 323 315 303 315 316 311 312 310 311 311 310 309 308 306 303 302 300 296 294 290 297 299 298
312 312 313 314 316 318 318 319 321 323 322 321 319 319 319 319 318 318 319 319 319 319 320 322 314 308 301 316 311 311 310 308 309 309 308 308 308 303 301 295 292 293 287 289 294 299 297
309 310 310 311 312 314 316 316 317 317 320 321 320 319 319 319 318 318 319 320 319 318 317 314 309 302 303 304 312 310 309 310 306 306 304 305 301 296 295 292 285 288 288 290 289 295 294
309 308 308 309 310 311 313 314 315 315 315 315 318 320 320 319 319 319 318 312 306 303 306 301 300 299 303 309 311 308 309 306 305 302 295 299 292 289 293 295 295 293 291 290 292 295 293
308 308 308 307 307 307 310 312 314 314 313 313 313 314 317 320 319 319 316 306 306 309 299 304 302 302 307 309 303 306 308 301 300 295 298 294 289 296 298 298 295 292 290 289 293 296 292
305 306 307 308 307 306 306 310 310 312 312 312 312 312 314 319 319 317 317 311 315 312 299 300 303 301 303 307 302 303 305 302 298 296 295 292 295 299 297 293 293 291 290 290 290 293 293
304 303 304 305 307 307 306 305 308 308 310 310 310 310 312 319 315 319 315 316 316 314 297 297 297 302 303 305 299 305 306 302 298 295 296 294 297 296 293 293 294 289 294 294 292 288 283
304 301 302 303 305 306 307 306 305 306 307 308 309 309 309 314 315 313 316 319 317 311 284 299 296 307 304 298 299 300 304 301 295 295 294 292 293 292 292 293 295 292 295 293 292 288 288
302 302 301 302 303 305 306 306 304 305 305 306 306 307 308 314 317 316 319 319 315 295 283 294 299 297 296 297 298 300 299 301 300 296 294 293 296 295 294 295 295 297 294 292 291 289 280
303 301 300 302 302 303 304 306 305 303 304 304 305 306 305 307 308 317 318 311 293 285 298 294 294 297 296 293 295 296 294 292 291 287 287 292 292 294 296 292 294 293 289 280 280 279 278
304 303 302 301 302 303 302 305 306 305 303 303 304 304 308 305 311 315 312 300 284 291 294 298 297 296 293 295 294 294 293 290 294 291 287 286 284 292 295 294 290 290 289 282 276 278 279
304 303 304 303 301 302 302 302 304 305 306 303 304 303 302 309 308 312 303 286 288 293 298 295 295 291 292 294 293 292 291 291 294 294 287 286 287 293 294 294 295 290 286 292 284 277 277
305 305 303 304 302 301 302 301 302 304 305 303 299 299 298 308 309 308 297 289 292 298 298 299 292 295 290 291 290 290 290 294 294 297 296 291 285 290 291 293 293 291 293 284 283 274 273
305 305 304 304 303 302 302 299 301 303 305 303 298 291 300 308 310 300 289 291 294 299 300 297 294 294 294 293 291 289 291 292 295 294 296 293 289 285 289 288 288 288 286 288 288 284 278
305 305 305 305 304 302 302 301 301 303 304 300 296 285 301 307 294 295 290 293 296 296 301 299 298 296 295 295 292 291 291 293 296 295 291 294 291 283 286 290 291 289 288 289 283 281 282
304 305 305 304 305 304 302 303 301 303 304 300 290 291 302 303 286 288 292 293 296 295 295 296 295 297 297 294 291 293 294 298 297 297 294 295 288 279 283 287 288 287 289 290 290 285 281
303 304 304 305 305 305 304 303 302 303 304 300 291 284 291 295 294 289 288 289 289 296 295 297 295 296 294 292 296 292 293 297 298 298 298 298 290 286 282 287 291 285 287 290 288 281 284
301 302 303 304 304 305 304 304 303 303 304 299 291 285 289 282 284 288 290 289 287 288 294 295 293 294 293 289 291 290 294 293 296 297 296 295 286 288 290 291 292 291 290 290 289 288 284
300 300 301 302 303 304 304 304 304 304 304 294 288 285 288 286 288 285 288 285 286 288 289 288 289 292 293 290 291 288 291 292 292 294 293 295 286 288 285 290 291 288 291 290 290 290 290
298 298 300 301 301 302 303 304 304 304 302 292 294 294 290 286 284 284 284 286 286 288 290 291 290 289 288 290 292 292 293 294 293 291 292 290 287 285 281 285 286 283 286 289 290 293 292
297 297 299 299 300 301 302 303 303 304 302 295 293 292 286 280 283 284 286 287 286 288 286 289 291 289 290 293 292 291 290 290 290 291 293 288 286 285 281 283 276 285 291 292 290 292 294
296 296 297 298 298 299 300 302 303 304 303 296 296 291 287 280 284 284 285 285 287 288 286 288 289 290 291 288 281 276 276 278 279 286 289 291 287 282 279 277 282 284 287 286 285 287 293
295 295 296 296 297 298 299 299 301 303 304 298 296 296 291 283 282 286 284 285 280 282 278 278 283 288 289 285 281 268 267 274 272 278 286 288 289 282 278 267 264 280 286 291 291 281 291
294 295 295 295 296 297 297 298 299 300 302 299 295 298 291 284 285 286 283 283 286 283 281 277 279 279 286 277 270 269 268 277 268 267 273 278 276 279 279 277 280 284 287 290 277 280 284
294 294 294 295 295 295 296 297 298 299 298 300 295 298 292 285 285 288 289 284 283 285 278 279 279 279 279 274 272 272 269 274 272 276 275 275 271 273 274 275 274 285 285 283 286 285 285
294 294 293 294 294 294 295 295 297 297 299 297 293 297 297 288 285 291 291 292 291 290 285 279 279 277 281 275 274 274 269 273 271 266 281 272 279 276 280 278 287 287 287 292 291 289 288